KC5DAQ-25 Weather Reports


Display with metric or nautical units.
time (UTC)temp
F
wind
direction
speed
MPH
gust
MPH
rain 1hr
in
rain 24hr
in
rain mn
in
humidity
%
barometer
mb
20260902205126 97 151 1.0 2.0 0.00 0.00 0.00 54 1002.8
20260902205027 97 51 1.0 2.0 0.00 0.00 0.00 55 1002.8
20260902204927 97 51 1.0 2.0 0.00 0.00 0.00 55 1002.8
20260902204825 97 0 0.0 2.0 0.00 0.00 0.00 55 1002.8
20260902204722 97 266 0.0 2.0 0.00 0.00 0.00 55 1002.8
20260902204618 97 266 0.0 2.0 0.00 0.00 0.00 55 1002.8
20260902204516 97 266 0.0 3.0 0.00 0.00 0.00 54 1002.8
20260902204416 97 266 0.0 3.0 0.00 0.00 0.00 53 1002.8
20260902204315 97 266 0.0 3.0 0.00 0.00 0.00 53 1002.8
20260902204213 97 266 0.0 4.0 0.00 0.00 0.00 53 1002.8
20260902204113 97 266 0.0 4.0 0.00 0.00 0.00 54 1002.8
20260902204016 97 116 0.0 4.0 0.00 0.00 0.00 54 1002.8
20260902203909 96 116 0.0 4.0 0.00 0.00 0.00 54 1002.9
20260902203811 96 116 0.0 4.0 0.00 0.00 0.00 54 1002.9
20260902203711 96 116 1.0 4.0 0.00 0.00 0.00 54 1002.9
20260902203606 96 124 1.0 4.0 0.00 0.00 0.00 53 1002.9
20260902203506 96 212 1.0 4.0 0.00 0.00 0.00 54 1002.9
20260902203408 96 212 1.0 4.0 0.00 0.00 0.00 54 1003.0
20260902203306 96 32 1.0 4.0 0.00 0.00 0.00 54 1003.0
20260902203207 96 100 0.0 3.0 0.00 0.00 0.00 54 1002.9
20260902203104 96 100 0.0 3.0 0.00 0.00 0.00 54 1003.0
20260902203006 96 96 1.0 3.0 0.00 0.00 0.00 54 1003.0
20260902202905 96 96 1.0 3.0 0.00 0.00 0.00 54 1003.0
20260902202802 96 199 1.0 2.0 0.00 0.00 0.00 54 1002.9
20260902202705 96 243 1.0 2.0 0.00 0.00 0.00 54 1002.9
20260902202603 96 38 0.0 2.0 0.00 0.00 0.00 54 1003.1
20260902202504 96 41 0.0 2.0 0.00 0.00 0.00 54 1003.1
20260902202404 96 214 0.0 2.0 0.00 0.00 0.00 54 1003.1
20260902202306 96 214 0.0 2.0 0.00 0.00 0.00 54 1003.1
20260902202207 96 214 0.0 2.0 0.00 0.00 0.00 54 1003.1
20260902202102 96 214 0.0 2.0 0.00 0.00 0.00 54 1003.1
20260902202002 96 214 0.0 2.0 0.00 0.00 0.00 54 1003.1
20260902201901 96 214 0.0 2.0 0.00 0.00 0.00 54 1003.1
20260902201805 96 214 1.0 2.0 0.00 0.00 0.00 53 1003.1
20260902201705 96 182 1.0 2.0 0.00 0.00 0.00 53 1002.9
20260902201605 96 196 1.0 3.0 0.00 0.00 0.00 53 1003.1
20260902201502 97 196 0.0 3.0 0.00 0.00 0.00 52 1003.1
20260902201401 97 47 0.0 3.0 0.00 0.00 0.00 52 1003.0
20260902201302 97 45 1.0 3.0 0.00 0.00 0.00 52 1003.1
20260902201205 97 45 1.0 3.0 0.00 0.00 0.00 52 1003.1
20260902201105 97 159 2.0 3.0 0.00 0.00 0.00 52 1003.0
20260902201005 97 124 1.0 3.0 0.00 0.00 0.00 52 1003.1
20260902200904 97 120 0.0 3.0 0.00 0.00 0.00 52 1003.1
20260902200802 97 120 1.0 3.0 0.00 0.00 0.00 52 1002.9
20260902200702 97 221 1.0 3.0 0.00 0.00 0.00 52 1003.2
20260902200602 98 155 1.0 3.0 0.00 0.00 0.00 51 1003.1
20260902200505 98 155 1.0 3.0 0.00 0.00 0.00 51 1003.1
20260902200403 98 186 0.0 4.0 0.00 0.00 0.00 51 1003.1
20260902200303 98 186 0.0 4.0 0.00 0.00 0.00 53 1003.1
20260902200205 98 186 0.0 4.0 0.00 0.00 0.00 52 1003.2
20260902200003 99 195 0.0 4.0 0.00 0.00 0.00 52 1003.2
20260902195904 99 195 0.0 4.0 0.00 0.00 0.00 52 1003.2
20260902195804 99 195 0.0 4.0 0.00 0.00 0.00 52 1003.2
20260902195702 99 195 0.0 5.0 0.00 0.00 0.00 52 1003.2
20260902195604 99 195 1.0 5.0 0.00 0.00 0.00 52 1003.3
20260902195502 99 193 1.0 5.0 0.00 0.00 0.00 52 1003.3
20260902195403 99 209 1.0 5.0 0.00 0.00 0.00 52 1003.3
20260902195306 99 203 1.0 5.0 0.00 0.00 0.00 52 1003.3
20260902195206 99 203 1.0 5.0 0.00 0.00 0.00 52 1003.3
20260902195106 99 61 1.0 5.0 0.00 0.00 0.00 52 1003.4
20260902195002 99 92 2.0 5.0 0.00 0.00 0.00 52 1003.4
20260902194903 99 154 2.0 5.0 0.00 0.00 0.00 51 1003.4
20260902194805 99 151 2.0 5.0 0.00 0.00 0.00 53 1003.4
20260902194703 98 175 1.0 4.0 0.00 0.00 0.00 53 1003.4
20260902194603 98 221 0.0 4.0 0.00 0.00 0.00 53 1003.4
20260902194503 98 220 0.0 4.0 0.00 0.00 0.00 53 1003.4
20260902194404 98 0 0.0 4.0 0.00 0.00 0.00 53 1003.5
20260902194305 98 0 0.0 4.0 0.00 0.00 0.00 53 1003.5
20260902194206 98 0 1.0 4.0 0.00 0.00 0.00 53 1003.5
20260902194102 98 316 1.0 4.0 0.00 0.00 0.00 53 1003.5
20260902194002 98 52 1.0 4.0 0.00 0.00 0.00 52 1003.6
20260902193906 99 186 2.0 4.0 0.00 0.00 0.00 51 1003.6
20260902193803 99 149 1.0 4.0 0.00 0.00 0.00 51 1003.7
20260902193702 99 117 1.0 9.0 0.00 0.00 0.00 53 1003.6
20260902193601 99 197 1.0 9.0 0.00 0.00 0.00 53 1003.7
20260902193501 99 252 1.0 9.0 0.00 0.00 0.00 52 1003.6
20260902193401 99 289 0.0 9.0 0.00 0.00 0.00 52 1003.6
20260902193301 98 289 0.0 9.0 0.00 0.00 0.00 53 1003.5
20260902193201 98 288 0.0 9.0 0.00 0.00 0.00 53 1003.7
20260902193057 98 206 1.0 9.0 0.00 0.00 0.00 53 1003.7
20260902192957 98 293 2.0 9.0 0.00 0.00 0.00 53 1003.8
20260902192857 98 305 2.0 9.0 0.00 0.00 0.00 54 1003.7
20260902192802 98 306 2.0 9.0 0.00 0.00 0.00 54 1003.8
20260902192701 98 203 1.0 5.0 0.00 0.00 0.00 54 1003.7
20260902192553 98 326 1.0 5.0 0.00 0.00 0.00 52 1003.8
20260902192445 98 282 1.0 5.0 0.00 0.00 0.00 53 1003.8
20260902192344 98 0 2.0 5.0 0.00 0.00 0.00 53 1003.9
20260902192240 98 4 1.0 5.0 0.00 0.00 0.00 53 1003.9
20260902192139 98 100 0.0 5.0 0.00 0.00 0.00 54 1003.9
20260902192036 98 193 1.0 5.0 0.00 0.00 0.00 54 1003.9
20260902191934 98 193 2.0 5.0 0.00 0.00 0.00 53 1003.9
20260902191832 98 93 2.0 5.0 0.00 0.00 0.00 54 1003.9
20260902191732 98 158 2.0 5.0 0.00 0.00 0.00 54 1003.9
20260902191635 98 326 1.0 3.0 0.00 0.00 0.00 54 1004.0
20260902191532 98 106 2.0 3.0 0.00 0.00 0.00 54 1004.0
20260902191433 98 106 2.0 3.0 0.00 0.00 0.00 54 1004.1
20260902191318 98 171 2.0 3.0 0.00 0.00 0.00 54 1004.0
20260902191221 98 173 1.0 3.0 0.00 0.00 0.00 54 1004.0
20260902191119 98 230 0.0 3.0 0.00 0.00 0.00 54 1004.0
20260902191021 98 233 1.0 3.0 0.00 0.00 0.00 54 1004.1
20260902190919 97 233 1.0 3.0 0.00 0.00 0.00 54 1004.0
20260902190821 97 227 1.0 3.0 0.00 0.00 0.00 54 1004.0
20260902190714 97 145 0.0 2.0 0.00 0.00 0.00 53 1004.0
20260902190611 98 145 0.0 2.0 0.00 0.00 0.00 54 1004.0
20260902190509 98 148 0.0 2.0 0.00 0.00 0.00 54 1004.0
20260902190407 98 241 0.0 3.0 0.00 0.00 0.00 54 1004.0
20260902190304 97 305 1.0 3.0 0.00 0.00 0.00 55 1004.1
20260902190204 97 228 0.0 3.0 0.00 0.00 0.00 55 1004.1
20260902190105 97 313 0.0 3.0 0.00 0.00 0.00 56 1004.1
20260902190002 96 355 1.0 3.0 0.00 0.00 0.00 56 1004.1
20260902185904 96 355 1.0 3.0 0.00 0.00 0.00 57 1004.2
20260902185803 96 354 0.0 5.0 0.00 0.00 0.00 57 1004.2
20260902185704 96 109 1.0 5.0 0.00 0.00 0.00 57 1004.3
20260902185602 96 131 2.0 5.0 0.00 0.00 0.00 56 1004.3
20260902185505 96 147 2.0 5.0 0.00 0.00 0.00 56 1004.3
20260902185404 96 200 1.0 5.0 0.00 0.00 0.00 56 1004.3
20260902185306 96 141 1.0 5.0 0.00 0.00 0.00 57 1004.3
20260902185204 96 141 1.0 5.0 0.00 0.00 0.00 57 1004.3
20260902185103 96 135 1.0 5.0 0.00 0.00 0.00 56 1004.3
20260902185005 96 135 2.0 5.0 0.00 0.00 0.00 55 1004.3
20260902184903 96 135 2.0 5.0 0.00 0.00 0.00 55 1004.4
20260902184802 96 257 1.0 4.0 0.00 0.00 0.00 55 1004.3
20260902184702 96 202 1.0 4.0 0.00 0.00 0.00 56 1004.4
20260902184604 96 145 1.0 4.0 0.00 0.00 0.00 56 1004.3
20260902184504 96 28 1.0 4.0 0.00 0.00 0.00 56 1004.3
20260902184402 96 28 2.0 4.0 0.00 0.00 0.00 56 1004.3
20260902184302 96 203 2.0 4.0 0.00 0.00 0.00 56 1004.4
20260902184205 96 185 2.0 4.0 0.00 0.00 0.00 56 1004.4
20260902184103 96 149 1.0 4.0 0.00 0.00 0.00 56 1004.4
20260902184002 96 197 1.0 4.0 0.00 0.00 0.00 55 1004.5
20260902183904 97 197 2.0 4.0 0.00 0.00 0.00 54 1004.5
20260902183805 97 350 2.0 4.0 0.00 0.00 0.00 54 1004.5
20260902183658 98 312 1.0 3.0 0.00 0.00 0.00 54 1004.5
20260902183553 98 255 1.0 3.0 0.00 0.00 0.00 54 1004.6
20260902183446 98 286 0.0 3.0 0.00 0.00 0.00 54 1004.6
20260902183341 98 199 0.0 3.0 0.00 0.00 0.00 54 1004.6
20260902183234 99 199 1.0 4.0 0.00 0.00 0.00 55 1004.6
20260902183131 98 197 1.0 4.0 0.00 0.00 0.00 55 1004.6
20260902183032 98 282 1.0 4.0 0.00 0.00 0.00 54 1004.6
20260902182932 98 333 2.0 5.0 0.00 0.00 0.00 55 1004.7
20260902182835 98 55 1.0 5.0 0.00 0.00 0.00 55 1004.6
20260902182734 98 327 1.0 5.0 0.00 0.00 0.00 55 1004.7
20260902182631 98 327 2.0 5.0 0.00 0.00 0.00 55 1004.7
20260902182532 98 327 2.0 5.0 0.00 0.00 0.00 55 1004.7
20260902182431 98 123 2.0 5.0 0.00 0.00 0.00 54 1004.7
20260902182335 98 182 2.0 5.0 0.00 0.00 0.00 55 1004.8
20260902182231 98 176 2.0 5.0 0.00 0.00 0.00 53 1004.8
20260902182132 98 148 3.0 5.0 0.00 0.00 0.00 54 1004.8
20260902182030 98 144 3.0 5.0 0.00 0.00 0.00 53 1004.8
20260902181931 98 268 2.0 3.0 0.00 0.00 0.00 57 1004.8
20260902181831 98 145 2.0 3.0 0.00 0.00 0.00 57 1004.8
20260902181728 98 164 2.0 4.0 0.00 0.00 0.00 57 1004.9
20260902181626 97 299 1.0 4.0 0.00 0.00 0.00 57 1005.0
20260902181519 97 175 1.0 6.0 0.00 0.00 0.00 57 1004.9
20260902181419 97 175 2.0 6.0 0.00 0.00 0.00 56 1004.9
20260902181316 97 135 1.0 6.0 0.00 0.00 0.00 56 1004.9
20260902181218 97 180 2.0 6.0 0.00 0.00 0.00 56 1005.0
20260902181112 97 158 2.0 6.0 0.00 0.00 0.00 56 1004.9
20260902181012 98 320 2.0 6.0 0.00 0.00 0.00 55 1005.0
20260902180911 98 320 2.0 6.0 0.00 0.00 0.00 55 1005.1
20260902180809 98 117 2.0 6.0 0.00 0.00 0.00 55 1005.1
20260902180709 98 261 3.0 6.0 0.00 0.00 0.00 55 1005.1
20260902180604 99 202 2.0 6.0 0.00 0.00 0.00 56 1005.1
20260902180504 99 337 0.0 3.0 0.00 0.00 0.00 56 1005.1
20260902180402 99 31 1.0 4.0 0.00 0.00 0.00 56 1005.2
20260902180302 99 0 1.0 4.0 0.00 0.00 0.00 56 1005.2
20260902180204 98 0 1.0 4.0 0.00 0.00 0.00 56 1005.3
20260902180005 98 103 0.0 4.0 0.00 0.00 0.00 57 1005.3
20260902175903 98 103 1.0 4.0 0.00 0.00 0.00 57 1005.3
20260902175809 97 103 2.0 4.0 0.00 0.00 0.00 57 1005.2
20260902175704 97 162 2.0 4.0 0.00 0.00 0.00 57 1005.3
20260902175602 97 204 2.0 5.0 0.00 0.00 0.00 57 1005.4
20260902175503 96 45 1.0 6.0 0.00 0.00 0.00 59 1005.4
20260902175402 96 149 1.0 6.0 0.00 0.00 0.00 59 1005.4
20260902175307 96 121 1.0 6.0 0.00 0.00 0.00 59 1005.5
20260902175204 95 24 2.0 6.0 0.00 0.00 0.00 59 1005.5
20260902175103 95 151 1.0 6.0 0.00 0.00 0.00 59 1005.5
20260902175002 95 282 1.0 6.0 0.00 0.00 0.00 59 1005.5
20260902174902 95 333 1.0 6.0 0.00 0.00 0.00 60 1005.5
20260902174804 95 338 2.0 6.0 0.00 0.00 0.00 60 1005.6
20260902174701 95 103 3.0 6.0 0.00 0.00 0.00 59 1005.6
20260902174558 95 166 3.0 6.0 0.00 0.00 0.00 61 1005.7
20260902174458 95 250 2.0 6.0 0.00 0.00 0.00 61 1005.7
20260902174357 94 172 1.0 6.0 0.00 0.00 0.00 61 1005.8
20260902174255 94 151 2.0 6.0 0.00 0.00 0.00 61 1005.8
20260902174152 94 173 2.0 4.0 0.00 0.00 0.00 61 1005.8
20260902174053 94 202 2.0 4.0 0.00 0.00 0.00 61 1005.8
20260902173954 95 171 3.0 4.0 0.00 0.00 0.00 61 1005.9
20260902173851 95 161 1.0 3.0 0.00 0.00 0.00 62 1005.8
20260902173746 94 157 1.0 3.0 0.00 0.00 0.00 62 1005.9
20260902173630 94 157 2.0 3.0 0.00 0.00 0.00 62 1005.8
20260902173532 94 121 2.0 3.0 0.00 0.00 0.00 63 1005.9
20260902173431 94 199 2.0 3.0 0.00 0.00 0.00 64 1005.9
20260902173331 93 151 1.0 3.0 0.00 0.00 0.00 63 1005.9
20260902173233 93 30 1.0 4.0 0.00 0.00 0.00 63 1005.9
20260902173131 92 123 1.0 4.0 0.00 0.00 0.00 64 1006.0
20260902173032 92 114 1.0 4.0 0.00 0.00 0.00 64 1006.0
20260902172933 92 193 1.0 4.0 0.00 0.00 0.00 64 1006.0
20260902172831 92 193 1.0 4.0 0.00 0.00 0.00 64 1006.0
20260902172731 93 193 2.0 4.0 0.00 0.00 0.00 64 1006.0
20260902172630 92 127 1.0 5.0 0.00 0.00 0.00 64 1006.0
20260902172532 92 44 1.0 5.0 0.00 0.00 0.00 64 1006.0
20260902172427 92 178 2.0 5.0 0.00 0.00 0.00 64 1006.0
20260902172327 93 204 1.0 5.0 0.00 0.00 0.00 67 1006.1
20260902172216 92 0 1.0 5.0 0.00 0.00 0.00 67 1006.1
20260902172111 92 0 0.0 5.0 0.00 0.00 0.00 67 1006.0
20260902172011 92 0 0.0 5.0 0.00 0.00 0.00 67 1006.1
20260902171910 92 0 0.0 5.0 0.00 0.00 0.00 66 1006.1
20260902171806 92 0 2.0 5.0 0.00 0.00 0.00 66 1006.1
20260902171703 92 274 1.0 5.0 0.00 0.00 0.00 66 1006.1
20260902171603 92 331 1.0 5.0 0.00 0.00 0.00 66 1006.2
20260902171502 92 323 2.0 5.0 0.00 0.00 0.00 65 1006.2
20260902171404 92 166 2.0 5.0 0.00 0.00 0.00 65 1006.3
20260902171303 92 127 2.0 5.0 0.00 0.00 0.00 65 1006.3
20260902171204 92 141 2.0 5.0 0.00 0.00 0.00 65 1006.3
20260902171103 92 141 1.0 5.0 0.00 0.00 0.00 66 1006.3
20260902171007 92 168 1.0 5.0 0.00 0.00 0.00 66 1006.3
20260902170902 92 166 2.0 5.0 0.00 0.00 0.00 66 1006.3
20260902170804 92 197 2.0 5.0 0.00 0.00 0.00 66 1006.3
20260902170704 92 286 1.0 5.0 0.00 0.00 0.00 66 1006.3
20260902170605 92 286 1.0 5.0 0.00 0.00 0.00 66 1006.4
20260902170503 92 281 2.0 5.0 0.00 0.00 0.00 66 1006.3
20260902170403 92 334 2.0 5.0 0.00 0.00 0.00 66 1006.3
20260902170303 92 138 1.0 5.0 0.00 0.00 0.00 66 1006.3
20260902170203 92 159 1.0 5.0 0.00 0.00 0.00 66 1006.4
20260902170104 92 173 1.0 5.0 0.00 0.00 0.00 66 1006.4
20260902170004 92 140 1.0 5.0 0.00 0.00 0.00 65 1006.4
20260902165903 92 34 2.0 5.0 0.00 0.00 0.00 65 1006.4
20260902165802 92 172 3.0 5.0 0.00 0.00 0.00 66 1006.5
20260902165708 93 75 1.0 4.0 0.00 0.00 0.00 67 1006.4
20260902165602 92 285 2.0 4.0 0.00 0.00 0.00 67 1006.5
20260902165502 92 285 3.0 4.0 0.00 0.00 0.00 67 1006.5
20260902165402 92 254 2.0 4.0 0.00 0.00 0.00 67 1006.4
20260902165308 92 334 1.0 5.0 0.00 0.00 0.00 67 1006.5
20260902165204 92 330 2.0 5.0 0.00 0.00 0.00 67 1006.4
20260902165101 92 321 1.0 5.0 0.00 0.00 0.00 68 1006.5
20260902165003 92 327 1.0 5.0 0.00 0.00 0.00 69 1006.5
20260902164904 91 357 2.0 5.0 0.00 0.00 0.00 69 1006.5
20260902164804 91 0 2.0 5.0 0.00 0.00 0.00 69 1006.6
20260902164702 90 89 2.0 5.0 0.00 0.00 0.00 70 1006.5
20260902164602 90 193 2.0 5.0 0.00 0.00 0.00 70 1006.5
20260902164504 89 200 2.0 5.0 0.00 0.00 0.00 71 1006.5
20260902164408 89 196 3.0 5.0 0.00 0.00 0.00 71 1006.5
20260902164303 89 336 2.0 4.0 0.00 0.00 0.00 71 1006.6
20260902164203 89 334 2.0 4.0 0.00 0.00 0.00 72 1006.6
20260902164104 89 320 1.0 3.0 0.00 0.00 0.00 72 1006.7
20260902164006 88 183 1.0 3.0 0.00 0.00 0.00 72 1006.6
20260902163904 88 185 1.0 3.0 0.00 0.00 0.00 72 1006.6
20260902163802 88 185 1.0 3.0 0.00 0.00 0.00 71 1006.7
20260902163703 88 185 2.0 3.0 0.00 0.00 0.00 71 1006.7
20260902163602 88 93 2.0 3.0 0.00 0.00 0.00 72 1006.7
20260902163505 88 47 2.0 3.0 0.00 0.00 0.00 72 1006.6
20260902163403 88 73 1.0 3.0 0.00 0.00 0.00 72 1006.7
20260902163303 88 212 1.0 3.0 0.00 0.00 0.00 72 1006.7
20260902163204 88 210 2.0 3.0 0.00 0.00 0.00 72 1006.7
20260902163104 87 188 2.0 3.0 0.00 0.00 0.00 72 1006.7
20260902163002 87 185 1.0 3.0 0.00 0.00 0.00 72 1006.7
20260902162902 87 159 0.0 3.0 0.00 0.00 0.00 72 1006.7
20260902162804 87 159 1.0 3.0 0.00 0.00 0.00 72 1006.7
20260902162704 88 179 2.0 3.0 0.00 0.00 0.00 73 1006.7
20260902162602 88 176 1.0 3.0 0.00 0.00 0.00 73 1006.7
20260902162504 88 276 2.0 3.0 0.00 0.00 0.00 73 1006.7
20260902162401 88 276 2.0 4.0 0.00 0.00 0.00 73 1006.6
20260902162306 88 158 2.0 5.0 0.00 0.00 0.00 74 1006.8
20260902162205 88 330 2.0 5.0 0.00 0.00 0.00 74 1006.6
20260902162102 88 166 1.0 5.0 0.00 0.00 0.00 74 1006.7
20260902162002 88 228 1.0 5.0 0.00 0.00 0.00 73 1006.7
20260902161902 88 228 1.0 5.0 0.00 0.00 0.00 73 1006.7
20260902161804 88 255 1.0 5.0 0.00 0.00 0.00 73 1006.6
20260902161702 88 257 1.0 5.0 0.00 0.00 0.00 73 1006.7
20260902161601 88 257 2.0 5.0 0.00 0.00 0.00 73 1006.7
20260902161502 88 207 2.0 5.0 0.00 0.00 0.00 73 1006.7
20260902161404 88 186 2.0 5.0 0.00 0.00 0.00 73 1006.7
20260902161303 88 220 2.0 5.0 0.00 0.00 0.00 73 1006.8
20260902161203 88 302 1.0 5.0 0.00 0.00 0.00 74 1006.7
20260902161102 88 212 1.0 5.0 0.00 0.00 0.00 74 1006.8
20260902161008 87 212 2.0 5.0 0.00 0.00 0.00 74 1006.7
20260902160907 87 244 2.0 5.0 0.00 0.00 0.00 74 1006.7
20260902160803 87 186 1.0 5.0 0.00 0.00 0.00 74 1006.8
20260902160702 87 186 1.0 5.0 0.00 0.00 0.00 74 1006.7
20260902160601 88 193 2.0 5.0 0.00 0.00 0.00 74 1006.8
20260902160503 88 193 2.0 6.0 0.00 0.00 0.00 74 1006.7
20260902160401 88 227 2.0 6.0 0.00 0.00 0.00 74 1006.7
20260902160303 87 85 1.0 6.0 0.00 0.00 0.00 74 1006.6
20260902160203 87 206 1.0 6.0 0.00 0.00 0.00 74 1006.8
20260902160106 87 169 2.0 6.0 0.00 0.00 0.00 73 1006.7
20260902160005 88 193 1.0 6.0 0.00 0.00 0.00 74 1006.7
20260902155904 88 303 1.0 6.0 0.00 0.00 0.00 74 1006.7
20260902155803 88 216 1.0 6.0 0.00 0.00 0.00 74 1006.7
20260902155703 88 183 2.0 6.0 0.00 0.00 0.00 75 1006.8
20260902155603 88 206 2.0 6.0 0.00 0.00 0.00 75 1006.7
20260902155503 87 124 1.0 4.0 0.00 0.00 0.00 75 1006.8
20260902155404 87 68 0.0 5.0 0.00 0.00 0.00 75 1006.7
20260902155306 87 68 0.0 5.0 0.00 0.00 0.00 77 1006.7
20260902155205 86 189 1.0 5.0 0.00 0.00 0.00 77 1006.8
20260902155105 86 189 1.0 5.0 0.00 0.00 0.00 77 1006.8
20260902155003 86 189 1.0 5.0 0.00 0.00 0.00 77 1006.8
20260902154903 86 189 1.0 5.0 0.00 0.00 0.00 77 1006.7
20260902154804 86 189 1.0 5.0 0.00 0.00 0.00 77 1006.7
20260902154705 86 189 1.0 5.0 0.00 0.00 0.00 77 1006.7
20260902154605 85 185 2.0 5.0 0.00 0.00 0.00 78 1006.7
20260902154502 85 185 2.0 5.0 0.00 0.00 0.00 78 1006.7
20260902154402 85 0 2.0 5.0 0.00 0.00 0.00 79 1006.7
20260902154306 85 59 2.0 5.0 0.00 0.00 0.00 79 1006.8
20260902154202 85 0 1.0 4.0 0.00 0.00 0.00 79 1006.8
20260902154102 85 299 1.0 4.0 0.00 0.00 0.00 79 1006.8
20260902154008 85 178 1.0 4.0 0.00 0.00 0.00 79 1006.8
20260902153903 85 220 1.0 4.0 0.00 0.00 0.00 79 1006.9
20260902153803 84 243 2.0 4.0 0.00 0.00 0.00 79 1006.9
20260902153702 84 243 2.0 4.0 0.00 0.00 0.00 79 1006.9
20260902153605 84 331 1.0 3.0 0.00 0.00 0.00 79 1006.9
20260902153506 84 240 0.0 3.0 0.00 0.00 0.00 80 1007.0
20260902153407 84 192 0.0 3.0 0.00 0.00 0.00 80 1006.9
20260902153304 84 192 0.0 3.0 0.00 0.00 0.00 80 1006.9
20260902153202 84 192 0.0 3.0 0.00 0.00 0.00 81 1006.9
20260902153104 84 192 1.0 3.0 0.00 0.00 0.00 81 1006.9
20260902153004 83 192 1.0 3.0 0.00 0.00 0.00 81 1006.9
20260902152903 83 179 1.0 4.0 0.00 0.00 0.00 82 1007.0
20260902152801 83 179 2.0 4.0 0.00 0.00 0.00 82 1007.0
20260902152703 83 193 2.0 4.0 0.00 0.00 0.00 82 1006.9
20260902152601 83 182 2.0 6.0 0.00 0.00 0.00 82 1006.9
20260902152503 82 128 1.0 6.0 0.00 0.00 0.00 82 1007.0
20260902152402 82 185 0.0 6.0 0.00 0.00 0.00 82 1007.0
20260902152307 82 185 0.0 6.0 0.00 0.00 0.00 82 1007.0
20260902152202 82 185 0.0 6.0 0.00 0.00 0.00 82 1006.9
20260902152105 82 185 1.0 6.0 0.00 0.00 0.00 82 1007.0
20260902152001 82 207 2.0 6.0 0.00 0.00 0.00 82 1006.9
20260902151900 82 209 2.0 6.0 0.00 0.00 0.00 82 1007.0
20260902151749 82 180 2.0 6.0 0.00 0.00 0.00 83 1006.9
20260902151649 82 200 2.0 5.0 0.00 0.00 0.00 83 1007.0
20260902151542 82 210 2.0 5.0 0.00 0.00 0.00 83 1007.0
20260902151439 82 157 2.0 4.0 0.00 0.00 0.00 83 1007.0
20260902151340 82 189 1.0 4.0 0.00 0.00 0.00 83 1006.9
20260902151240 82 176 1.0 3.0 0.00 0.00 0.00 83 1007.0
20260902151133 82 176 1.0 3.0 0.00 0.00 0.00 83 1006.9
20260902151032 82 188 1.0 3.0 0.00 0.00 0.00 83 1007.0
20260902150933 82 195 1.0 3.0 0.00 0.00 0.00 83 1007.0
20260902150832 82 178 1.0 3.0 0.00 0.00 0.00 83 1007.0
20260902150731 82 151 1.0 2.0 0.00 0.00 0.00 83 1007.0
20260902150632 82 149 1.0 2.0 0.00 0.00 0.00 83 1007.0
20260902150531 82 310 1.0 2.0 0.00 0.00 0.00 83 1007.0
20260902150430 82 180 1.0 2.0 0.00 0.00 0.00 83 1007.0
20260902150330 81 180 1.0 3.0 0.00 0.00 0.00 83 1006.9
20260902150231 81 180 1.0 3.0 0.00 0.00 0.00 83 1006.9
20260902150130 81 176 0.0 3.0 0.00 0.00 0.00 83 1006.9
20260902150029 81 176 0.0 3.0 0.00 0.00 0.00 83 1006.9
20260902145926 81 176 0.0 3.0 0.00 0.00 0.00 84 1006.9
20260902145824 81 176 0.0 3.0 0.00 0.00 0.00 84 1006.9
20260902145724 81 186 0.0 3.0 0.00 0.00 0.00 84 1007.0
20260902145625 81 186 0.0 3.0 0.00 0.00 0.00 84 1006.9
20260902145526 81 186 1.0 3.0 0.00 0.00 0.00 84 1006.8
20260902145423 81 186 1.0 3.0 0.00 0.00 0.00 84 1006.8
20260902145324 81 41 0.0 2.0 0.00 0.00 0.00 84 1006.8
20260902145223 81 41 0.0 2.0 0.00 0.00 0.00 84 1006.8
20260902145124 81 41 0.0 2.0 0.00 0.00 0.00 84 1006.8
20260902145027 81 42 0.0 2.0 0.00 0.00 0.00 84 1006.8
20260902144924 81 49 0.0 2.0 0.00 0.00 0.00 84 1006.9
20260902144823 81 49 0.0 2.0 0.00 0.00 0.00 84 1006.9
20260902144723 81 118 0.0 2.0 0.00 0.00 0.00 84 1006.9
20260902144624 81 118 0.0 2.0 0.00 0.00 0.00 84 1006.9
20260902144524 81 118 1.0 2.0 0.00 0.00 0.00 84 1006.8
20260902144423 81 118 1.0 2.0 0.00 0.00 0.00 84 1006.9
20260902144323 81 121 0.0 1.0 0.00 0.00 0.00 84 1006.8
20260902144224 81 63 0.0 3.0 0.00 0.00 0.00 84 1006.9
20260902144125 81 76 0.0 3.0 0.00 0.00 0.00 84 1006.9
20260902144025 81 82 0.0 3.0 0.00 0.00 0.00 84 1006.9
20260902143925 81 82 0.0 3.0 0.00 0.00 0.00 84 1006.9
20260902143827 81 82 0.0 3.0 0.00 0.00 0.00 84 1006.8
20260902143723 81 82 0.0 3.0 0.00 0.00 0.00 84 1006.9
20260902143624 81 82 0.0 3.0 0.00 0.00 0.00 84 1006.9
20260902143523 81 82 1.0 3.0 0.00 0.00 0.00 84 1006.9
20260902143424 81 82 1.0 3.0 0.00 0.00 0.00 84 1006.9
20260902143326 81 80 0.0 3.0 0.00 0.00 0.00 84 1006.9
20260902143223 81 195 0.0 3.0 0.00 0.00 0.00 84 1006.9
20260902143123 81 195 1.0 3.0 0.00 0.00 0.00 84 1006.9
20260902143025 81 168 1.0 3.0 0.00 0.00 0.00 84 1006.8
20260902142924 81 168 1.0 3.0 0.00 0.00 0.00 84 1006.9
20260902142824 81 159 0.0 3.0 0.00 0.00 0.00 84 1006.8
20260902142725 81 162 0.0 3.0 0.00 0.00 0.00 84 1006.8
20260902142623 80 162 0.0 3.0 0.00 0.00 0.00 84 1006.9
20260902142524 80 164 1.0 3.0 0.00 0.00 0.00 84 1006.8
20260902142423 80 164 1.0 3.0 0.00 0.00 0.00 84 1006.9
20260902142323 80 164 0.0 3.0 0.00 0.00 0.00 84 1006.8
20260902142224 80 162 0.0 3.0 0.00 0.00 0.00 84 1006.8
20260902142126 80 162 0.0 3.0 0.00 0.00 0.00 84 1006.8
20260902142023 80 162 1.0 3.0 0.00 0.00 0.00 84 1006.8
20260902141924 80 162 1.0 3.0 0.00 0.00 0.00 84 1006.8
20260902141824 80 171 0.0 3.0 0.00 0.00 0.00 84 1006.9
20260902141723 80 171 0.0 3.0 0.00 0.00 0.00 84 1006.9
20260902141625 80 171 0.0 3.0 0.00 0.00 0.00 84 1006.9
20260902141523 80 171 0.0 3.0 0.00 0.00 0.00 84 1006.9
20260902141424 80 171 1.0 3.0 0.00 0.00 0.00 84 1006.9
20260902141323 80 171 0.0 3.0 0.00 0.00 0.00 84 1006.9
20260902141224 80 113 0.0 3.0 0.00 0.00 0.00 84 1007.0
20260902141123 80 113 1.0 3.0 0.00 0.00 0.00 84 1007.0
20260902141022 80 113 2.0 3.0 0.00 0.00 0.00 84 1007.0
20260902140924 80 190 1.0 3.0 0.00 0.00 0.00 84 1006.9
20260902140822 80 161 0.0 1.0 0.00 0.00 0.00 84 1006.9
20260902140724 80 161 0.0 2.0 0.00 0.00 0.00 84 1006.9
20260902140623 80 161 1.0 2.0 0.00 0.00 0.00 84 1006.9
20260902140522 80 161 1.0 2.0 0.00 0.00 0.00 84 1006.8
20260902140422 80 161 1.0 2.0 0.00 0.00 0.00 84 1006.8
20260902140324 80 161 0.0 2.0 0.00 0.00 0.00 84 1006.8
20260902140223 80 161 0.0 2.0 0.00 0.00 0.00 84 1006.8
20260902140123 80 161 1.0 2.0 0.00 0.00 0.00 84 1006.8
20260902140022 80 161 1.0 2.0 0.00 0.00 0.00 84 1006.9
20260902135923 80 161 1.0 2.0 0.00 0.00 0.00 84 1006.8
20260902135823 80 161 0.0 2.0 0.00 0.00 0.00 84 1006.8
20260902135722 80 180 0.0 2.0 0.00 0.00 0.00 84 1006.7
20260902135630 80 180 1.0 3.0 0.00 0.00 0.00 84 1006.8
20260902135523 80 180 1.0 3.0 0.00 0.00 0.00 84 1006.8
20260902135423 80 179 1.0 3.0 0.00 0.00 0.00 84 1006.8
20260902135322 80 179 1.0 3.0 0.00 0.00 0.00 84 1006.8
20260902135222 80 179 0.0 3.0 0.00 0.00 0.00 84 1006.8
20260902135122 80 179 0.0 3.0 0.00 0.00 0.00 84 1006.8
20260902135025 80 179 0.0 3.0 0.00 0.00 0.00 84 1006.8
20260902134922 80 179 0.0 3.0 0.00 0.00 0.00 84 1006.7
20260902134822 80 179 1.0 3.0 0.00 0.00 0.00 84 1006.8
20260902134722 80 179 1.0 3.0 0.00 0.00 0.00 84 1006.8
20260902134625 80 142 0.0 2.0 0.00 0.00 0.00 84 1006.7
20260902134523 80 142 0.0 2.0 0.00 0.00 0.00 84 1006.8
20260902134422 80 142 0.0 2.0 0.00 0.00 0.00 84 1006.8
20260902134322 80 142 0.0 2.0 0.00 0.00 0.00 84 1006.7
20260902134222 80 142 1.0 4.0 0.00 0.00 0.00 84 1006.7
20260902134125 80 142 1.0 4.0 0.00 0.00 0.00 84 1006.7
20260902134022 80 138 1.0 4.0 0.00 0.00 0.00 84 1006.8
20260902133921 80 138 0.0 4.0 0.00 0.00 0.00 84 1006.8
20260902133822 80 138 0.0 4.0 0.00 0.00 0.00 84 1006.7
20260902133723 80 138 0.0 4.0 0.00 0.00 0.00 84 1006.7
20260902133623 80 138 0.0 4.0 0.00 0.00 0.00 84 1006.7
20260902133522 80 138 0.0 4.0 0.00 0.00 0.00 84 1006.8
20260902133423 80 138 1.0 4.0 0.00 0.00 0.00 84 1006.8
20260902133324 80 138 1.0 4.0 0.00 0.00 0.00 84 1006.8
20260902133223 80 138 0.0 2.0 0.00 0.00 0.00 84 1006.8
20260902133123 80 138 0.0 2.0 0.00 0.00 0.00 84 1006.7
20260902133022 80 138 0.0 2.0 0.00 0.00 0.00 84 1006.8
20260902132921 80 149 0.0 2.0 0.00 0.00 0.00 84 1006.8
20260902132824 80 149 0.0 2.0 0.00 0.00 0.00 84 1006.7
20260902132721 80 149 0.0 2.0 0.00 0.00 0.00 84 1006.7
20260902132623 80 149 0.0 1.0 0.00 0.00 0.00 84 1006.7
20260902132522 80 149 0.0 1.0 0.00 0.00 0.00 84 1006.7
20260902132423 80 149 0.0 1.0 0.00 0.00 0.00 84 1006.6
20260902132324 80 149 0.0 1.0 0.00 0.00 0.00 84 1006.7
20260902132223 80 149 0.0 1.0 0.00 0.00 0.00 84 1006.7
20260902132123 80 149 0.0 1.0 0.00 0.00 0.00 84 1006.7
20260902132024 80 158 0.0 1.0 0.00 0.00 0.00 84 1006.6
20260902131923 80 158 0.0 1.0 0.00 0.00 0.00 84 1006.6
20260902131821 80 158 0.0 1.0 0.00 0.00 0.00 84 1006.6
20260902131722 80 158 0.0 1.0 0.00 0.00 0.00 84 1006.6
20260902131622 80 158 0.0 0.0 0.00 0.00 0.00 84 1006.5
20260902131523 80 158 0.0 0.0 0.00 0.00 0.00 84 1006.5
20260902131423 80 158 0.0 0.0 0.00 0.00 0.00 84 1006.5
20260902131322 80 158 0.0 0.0 0.00 0.00 0.00 84 1006.5
20260902131221 80 158 0.0 0.0 0.00 0.00 0.00 84 1006.5
20260902131124 80 158 0.0 0.0 0.00 0.00 0.00 84 1006.5
20260902131022 80 158 0.0 0.0 0.00 0.00 0.00 84 1006.4
20260902130922 80 158 0.0 0.0 0.00 0.00 0.00 84 1006.5
20260902130823 80 158 0.0 1.0 0.00 0.00 0.00 84 1006.5
20260902130724 80 158 0.0 1.0 0.00 0.00 0.00 84 1006.5
20260902130623 80 158 0.0 1.0 0.00 0.00 0.00 84 1006.5
20260902130522 80 158 0.0 1.0 0.00 0.00 0.00 84 1006.5
20260902130422 80 158 0.0 1.0 0.00 0.00 0.00 84 1006.4
20260902130325 80 158 0.0 1.0 0.00 0.00 0.00 84 1006.4
20260902130223 80 158 0.0 1.0 0.00 0.00 0.00 84 1006.4
20260902130123 80 158 0.0 1.0 0.00 0.00 0.00 84 1006.4
20260902130023 80 158 0.0 1.0 0.00 0.00 0.00 84 1006.4
20260902125923 80 158 0.0 1.0 0.00 0.00 0.00 84 1006.3
20260902125824 80 158 0.0 1.0 0.00 0.00 0.00 84 1006.3
20260902125723 80 158 0.0 1.0 0.00 0.00 0.00 84 1006.3
20260902125622 80 159 0.0 1.0 0.00 0.00 0.00 84 1006.3
20260902125522 80 159 0.0 1.0 0.00 0.00 0.00 83 1006.3
20260902125423 80 159 0.0 1.0 0.00 0.00 0.00 83 1006.3
20260902125321 80 159 0.0 1.0 0.00 0.00 0.00 83 1006.2
20260902125220 80 159 0.0 0.0 0.00 0.00 0.00 83 1006.2
20260902125122 80 158 0.0 0.0 0.00 0.00 0.00 83 1006.2
20260902125024 80 158 0.0 0.0 0.00 0.00 0.00 83 1006.1
20260902124921 80 158 0.0 0.0 0.00 0.00 0.00 83 1006.2
20260902124822 80 158 0.0 0.0 0.00 0.00 0.00 83 1006.2
20260902124722 80 158 0.0 0.0 0.00 0.00 0.00 83 1006.2
20260902124620 80 158 0.0 0.0 0.00 0.00 0.00 83 1006.2
20260902124521 80 158 0.0 0.0 0.00 0.00 0.00 83 1006.1
20260902124421 80 158 0.0 1.0 0.00 0.00 0.00 83 1006.1
20260902124320 80 158 0.0 1.0 0.00 0.00 0.00 83 1006.1
20260902124221 80 158 0.0 1.0 0.00 0.00 0.00 83 1006.1
20260902124123 80 158 0.0 1.0 0.00 0.00 0.00 83 1005.9
20260902124023 80 158 0.0 1.0 0.00 0.00 0.00 83 1005.9
20260902123920 80 158 0.0 1.0 0.00 0.00 0.00 83 1005.9
20260902123820 80 158 0.0 1.0 0.00 0.00 0.00 83 1005.8
20260902123722 80 158 0.0 1.0 0.00 0.00 0.00 83 1005.9
20260902123621 80 158 0.0 1.0 0.00 0.00 0.00 83 1005.9
20260902123521 80 158 0.0 1.0 0.00 0.00 0.00 83 1005.8
20260902123422 80 158 0.0 0.0 0.00 0.00 0.00 83 1005.8
20260902123320 80 158 0.0 0.0 0.00 0.00 0.00 83 1005.7
20260902123220 80 158 0.0 0.0 0.00 0.00 0.00 83 1005.7
20260902123122 80 158 0.0 0.0 0.00 0.00 0.00 83 1005.7
20260902123022 80 158 0.0 1.0 0.00 0.00 0.00 83 1005.7
20260902122920 80 158 0.0 1.0 0.00 0.00 0.00 83 1005.7
20260902122821 80 158 0.0 1.0 0.00 0.00 0.00 83 1005.6
20260902122722 80 158 0.0 1.0 0.00 0.00 0.00 83 1005.5
20260902122620 80 158 0.0 1.0 0.00 0.00 0.00 83 1005.5
20260902122520 80 158 0.0 1.0 0.00 0.00 0.00 83 1005.5
20260902122422 80 158 0.0 2.0 0.00 0.00 0.00 83 1005.4
20260902122308 80 158 0.0 2.0 0.00 0.00 0.00 83 1005.4
20260902122210 80 158 0.0 2.0 0.00 0.00 0.00 83 1005.4
20260902122108 80 158 0.0 2.0 0.00 0.00 0.00 83 1005.3
20260902122005 80 161 0.0 2.0 0.00 0.00 0.00 83 1005.3
20260902121903 80 161 0.0 2.0 0.00 0.00 0.00 83 1005.2
20260902121803 80 161 0.0 2.0 0.00 0.00 0.00 83 1005.2
20260902121704 80 161 0.0 2.0 0.00 0.00 0.00 83 1005.3
20260902121602 80 161 0.0 2.0 0.00 0.00 0.00 83 1005.3
20260902121503 80 161 0.0 2.0 0.00 0.00 0.00 83 1005.2
20260902121405 80 118 0.0 0.0 0.00 0.00 0.00 83 1005.3
20260902121305 80 118 0.0 0.0 0.00 0.00 0.00 83 1005.2
20260902121202 80 118 0.0 0.0 0.00 0.00 0.00 83 1005.3
20260902121103 0 144 0.0 0.0 0.00 0.00 0.00 1005.2
20260902121004 0 0.0 0.0 0.00 0.00 0.00 1005.2
20260902120903 0 0.0 0.0 0.00 0.00 0.00 1005.3
20260902120803 80 65 0.0 0.0 0.00 0.00 0.00 83 1005.3
20260902120705 80 65 0.0 0.0 0.00 0.00 0.00 83 1005.3
20260902120604 80 65 0.0 1.0 0.00 0.00 0.00 83 1005.2
20260902120505 80 65 0.0 1.0 0.00 0.00 0.00 83 1005.2
20260902120404 80 65 0.0 1.0 0.00 0.00 0.00 83 1005.2
20260902120304 80 65 0.0 1.0 0.00 0.00 0.00 83 1005.2
20260902120204 80 65 0.0 1.0 0.00 0.00 0.00 83 1005.2
20260902120104 80 65 0.0 1.0 0.00 0.00 0.00 83 1005.2
20260902120003 80 65 0.0 1.0 0.00 0.00 0.00 83 1005.2
20260902115905 80 65 0.0 1.0 0.00 0.00 0.00 83 1005.2
20260902115803 80 65 0.0 1.0 0.00 0.00 0.00 83 1005.2
20260902115703 80 65 0.0 1.0 0.00 0.00 0.00 83 1005.2
20260902115603 80 66 0.0 1.0 0.00 0.00 0.00 83 1005.2
20260902115503 80 66 0.0 1.0 0.00 0.00 0.00 83 1005.2
20260902115403 80 66 0.0 1.0 0.00 0.00 0.00 83 1005.2
20260902115307 80 66 0.0 1.0 0.00 0.00 0.00 83 1005.2
20260902115203 80 66 0.0 1.0 0.00 0.00 0.00 83 1005.1
20260902115105 80 66 0.0 2.0 0.00 0.00 0.00 83 1005.2
20260902115004 80 66 0.0 2.0 0.00 0.00 0.00 83 1005.2
20260902114903 80 66 0.0 2.0 0.00 0.00 0.00 83 1005.2
20260902114802 80 66 0.0 2.0 0.00 0.00 0.00 83 1005.2
20260902114702 80 66 0.0 2.0 0.00 0.00 0.00 83 1005.2
20260902114603 80 66 0.0 2.0 0.00 0.00 0.00 83 1005.1
20260902114506 80 323 0.0 2.0 0.00 0.00 0.00 83 1005.1
20260902114403 80 323 0.0 2.0 0.00 0.00 0.00 83 1005.1
20260902114301 80 323 1.0 2.0 0.00 0.00 0.00 83 1005.1
20260902114202 80 323 0.0 2.0 0.00 0.00 0.00 83 1005.1
20260902114102 80 168 0.0 2.0 0.00 0.00 0.00 83 1005.1
20260902114003 80 171 0.0 2.0 0.00 0.00 0.00 83 1005.0
20260902113903 80 171 0.0 2.0 0.00 0.00 0.00 83 1005.1
20260902113804 80 171 0.0 2.0 0.00 0.00 0.00 83 1005.1
20260902113702 80 176 0.0 2.0 0.00 0.00 0.00 83 1005.1
20260902113603 80 176 0.0 2.0 0.00 0.00 0.00 82 1005.0
20260902113505 80 176 0.0 2.0 0.00 0.00 0.00 82 1005.0
20260902113403 80 176 0.0 2.0 0.00 0.00 0.00 82 1005.1
20260902113302 80 192 1.0 2.0 0.00 0.00 0.00 82 1005.1
20260902113202 80 192 0.0 2.0 0.00 0.00 0.00 82 1005.1
20260902113104 80 192 0.0 1.0 0.00 0.00 0.00 82 1005.0
20260902113003 80 192 0.0 1.0 0.00 0.00 0.00 82 1005.0
20260902112903 80 192 0.0 1.0 0.00 0.00 0.00 82 1005.0
20260902112804 80 192 0.0 1.0 0.00 0.00 0.00 82 1005.0
20260902112704 80 192 0.0 1.0 0.00 0.00 0.00 82 1005.1
20260902112602 80 193 0.0 1.0 0.00 0.00 0.00 82 1005.0
20260902112504 80 193 0.0 1.0 0.00 0.00 0.00 82 1005.0
20260902112358 80 193 0.0 1.0 0.00 0.00 0.00 82 1005.0
20260902112245 80 193 0.0 1.0 0.00 0.00 0.00 82 1005.1
20260902112139 80 193 0.0 1.0 0.00 0.00 0.00 82 1005.1
20260902112039 80 193 0.0 1.0 0.00 0.00 0.00 82 1005.0
20260902111939 80 193 0.0 1.0 0.00 0.00 0.00 82 1005.0
20260902111835 80 193 0.0 1.0 0.00 0.00 0.00 82 1005.0
20260902111732 80 199 0.0 1.0 0.00 0.00 0.00 82 1005.1
20260902111632 80 199 0.0 3.0 0.00 0.00 0.00 82 1005.1
20260902111530 80 199 0.0 3.0 0.00 0.00 0.00 82 1005.0
20260902111431 80 199 0.0 3.0 0.00 0.00 0.00 82 1005.1
20260902111332 80 199 0.0 3.0 0.00 0.00 0.00 82 1005.1
20260902111233 80 199 0.0 3.0 0.00 0.00 0.00 82 1005.1
20260902111131 80 199 0.0 3.0 0.00 0.00 0.00 82 1005.1
20260902111033 80 199 0.0 3.0 0.00 0.00 0.00 82 1005.1
20260902110935 80 199 0.0 3.0 0.00 0.00 0.00 82 1005.1
20260902110833 80 199 1.0 3.0 0.00 0.00 0.00 82 1005.1
20260902110731 80 199 0.0 3.0 0.00 0.00 0.00 82 1005.2
20260902110631 80 183 0.0 0.0 0.00 0.00 0.00 82 1005.1
20260902110533 80 183 0.0 0.0 0.00 0.00 0.00 82 1005.1
20260902110427 80 183 0.0 0.0 0.00 0.00 0.00 82 1005.1
20260902110321 80 183 0.0 0.0 0.00 0.00 0.00 82 1005.1
20260902110220 80 183 0.0 0.0 0.00 0.00 0.00 82 1005.1
20260902110117 80 183 0.0 0.0 0.00 0.00 0.00 82 1005.2
20260902110018 80 183 0.0 0.0 0.00 0.00 0.00 82 1005.1
20260902105917 80 183 0.0 0.0 0.00 0.00 0.00 82 1005.1
20260902105816 80 183 0.0 0.0 0.00 0.00 0.00 82 1005.2
20260902105717 80 183 0.0 0.0 0.00 0.00 0.00 82 1005.1
20260902105614 80 183 0.0 0.0 0.00 0.00 0.00 82 1005.2
20260902105516 80 183 0.0 0.0 0.00 0.00 0.00 82 1005.1
20260902105416 80 183 0.0 0.0 0.00 0.00 0.00 82 1005.1
20260902105317 80 183 0.0 0.0 0.00 0.00 0.00 82 1005.2
20260902105214 80 183 0.0 0.0 0.00 0.00 0.00 82 1005.2
20260902105114 80 183 0.0 0.0 0.00 0.00 0.00 82 1005.2
20260902105015 80 183 0.0 0.0 0.00 0.00 0.00 82 1005.2
20260902104916 80 183 0.0 0.0 0.00 0.00 0.00 82 1005.2
20260902104815 80 183 0.0 0.0 0.00 0.00 0.00 82 1005.2
20260902104716 80 183 0.0 0.0 0.00 0.00 0.00 82 1005.1
20260902104615 80 183 0.0 0.0 0.00 0.00 0.00 82 1005.2
20260902104515 80 186 0.0 0.0 0.00 0.00 0.00 82 1005.2
20260902104417 80 186 0.0 0.0 0.00 0.00 0.00 82 1005.2
20260902104315 80 186 0.0 0.0 0.00 0.00 0.00 82 1005.2
20260902104216 80 186 0.0 0.0 0.00 0.00 0.00 82 1005.2
20260902104116 80 186 0.0 0.0 0.00 0.00 0.00 82 1005.1
20260902104016 80 186 0.0 0.0 0.00 0.00 0.00 82 1005.2
20260902103916 80 186 0.0 0.0 0.00 0.00 0.00 82 1005.2
20260902103815 80 186 0.0 0.0 0.00 0.00 0.00 82 1005.2
20260902103715 80 186 0.0 0.0 0.00 0.00 0.00 82 1005.1
20260902103615 80 186 0.0 0.0 0.00 0.00 0.00 82 1005.1
20260902103517 80 186 0.0 0.0 0.00 0.00 0.00 82 1005.1
20260902103414 80 186 0.0 0.0 0.00 0.00 0.00 82 1005.1
20260902103316 79 186 0.0 0.0 0.00 0.00 0.00 82 1005.1
20260902103215 79 186 0.0 0.0 0.00 0.00 0.00 82 1005.1
20260902103117 79 186 0.0 0.0 0.00 0.00 0.00 81 1005.1
20260902103003 79 186 0.0 0.0 0.00 0.00 0.00 81 1005.1
20260902102903 79 186 0.0 3.0 0.00 0.00 0.00 81 1005.1
20260902102802 80 186 0.0 3.0 0.00 0.00 0.00 81 1005.1
20260902102702 80 186 0.0 3.0 0.00 0.00 0.00 81 1005.1
20260902102603 79 186 0.0 3.0 0.00 0.00 0.00 81 1005.2
20260902102503 79 186 0.0 3.0 0.00 0.00 0.00 81 1005.0
20260902102402 79 186 0.0 3.0 0.00 0.00 0.00 81 1005.0
20260902102307 79 186 0.0 3.0 0.00 0.00 0.00 81 1005.0
20260902102203 79 186 0.0 3.0 0.00 0.00 0.00 81 1005.0
20260902102102 79 188 0.0 3.0 0.00 0.00 0.00 81 1005.0
20260902102002 79 186 0.0 3.0 0.00 0.00 0.00 81 1005.0
20260902101903 79 103 0.0 3.0 0.00 0.00 0.00 81 1005.1
20260902101804 79 103 0.0 3.0 0.00 0.00 0.00 81 1005.0
20260902101702 79 103 0.0 3.0 0.00 0.00 0.00 81 1005.1
20260902101602 79 103 0.0 3.0 0.00 0.00 0.00 81 1005.2
20260902101503 79 97 0.0 3.0 0.00 0.00 0.00 81 1005.1
20260902101402 79 97 0.0 3.0 0.00 0.00 0.00 81 1005.2
20260902101303 79 99 0.0 3.0 0.00 0.00 0.00 81 1005.1
20260902101204 79 93 0.0 0.0 0.00 0.00 0.00 81 1005.1
20260902101103 79 93 0.0 0.0 0.00 0.00 0.00 81 1005.1
20260902101002 79 93 0.0 0.0 0.00 0.00 0.00 81 1005.1
20260902100901 79 93 0.0 0.0 0.00 0.00 0.00 81 1005.1
20260902100803 79 93 0.0 0.0 0.00 0.00 0.00 81 1005.1
20260902100704 79 93 0.0 0.0 0.00 0.00 0.00 81 1005.1
20260902100604 79 93 0.0 0.0 0.00 0.00 0.00 81 1005.0
20260902100503 79 93 0.0 0.0 0.00 0.00 0.00 81 1005.1
20260902100402 79 93 0.0 0.0 0.00 0.00 0.00 81 1005.1
20260902100302 79 92 0.0 1.0 0.00 0.00 0.00 81 1005.1
20260902100203 79 92 0.0 1.0 0.00 0.00 0.00 81 1005.1
20260902100002 79 92 0.0 1.0 0.00 0.00 0.00 81 1005.1
20260902095905 79 92 0.0 1.0 0.00 0.00 0.00 81 1005.0
20260902095804 79 92 0.0 1.0 0.00 0.00 0.00 81 1005.1
20260902095702 79 92 0.0 1.0 0.00 0.00 0.00 81 1005.0
20260902095604 79 92 0.0 1.0 0.00 0.00 0.00 81 1005.1
20260902095506 79 92 0.0 1.0 0.00 0.00 0.00 81 1005.1
20260902095402 79 92 0.0 1.0 0.00 0.00 0.00 81 1005.1
20260902095306 79 149 0.0 0.0 0.00 0.00 0.00 81 1005.1
20260902095204 79 149 0.0 0.0 0.00 0.00 0.00 81 1005.1
20260902095103 79 149 0.0 0.0 0.00 0.00 0.00 81 1005.1
20260902095002 79 149 0.0 0.0 0.00 0.00 0.00 81 1005.2
20260902094904 79 149 0.0 0.0 0.00 0.00 0.00 80 1005.2
20260902094803 79 149 0.0 0.0 0.00 0.00 0.00 80 1005.2
20260902094704 79 151 0.0 0.0 0.00 0.00 0.00 80 1005.2
20260902094559 79 151 0.0 0.0 0.00 0.00 0.00 80 1005.2
20260902094456 79 151 0.0 0.0 0.00 0.00 0.00 80 1005.2
20260902094358 79 151 0.0 0.0 0.00 0.00 0.00 80 1005.1
20260902094258 79 151 0.0 0.0 0.00 0.00 0.00 80 1005.2
20260902094159 79 151 0.0 0.0 0.00 0.00 0.00 80 1005.1
20260902094054 79 151 0.0 0.0 0.00 0.00 0.00 80 1005.1
20260902093954 79 151 0.0 0.0 0.00 0.00 0.00 80 1005.2
20260902093853 79 151 0.0 0.0 0.00 0.00 0.00 80 1005.1
20260902093753 79 151 0.0 0.0 0.00 0.00 0.00 80 1005.1
20260902093653 79 151 0.0 0.0 0.00 0.00 0.00 80 1005.1
20260902093554 79 151 0.0 0.0 0.00 0.00 0.00 80 1005.1
20260902093453 79 151 0.0 0.0 0.00 0.00 0.00 80 1005.0
20260902093347 79 151 0.0 0.0 0.00 0.00 0.00 80 1005.0
20260902093245 79 151 0.0 1.0 0.00 0.00 0.00 80 1005.1
20260902093142 79 151 0.0 1.0 0.00 0.00 0.00 80 1005.1
20260902093042 79 151 0.0 1.0 0.00 0.00 0.00 80 1005.0
20260902092938 79 151 0.0 1.0 0.00 0.00 0.00 80 1005.1
20260902092839 79 151 0.0 1.0 0.00 0.00 0.00 80 1005.0
20260902092735 79 151 0.0 2.0 0.00 0.00 0.00 80 1005.1
20260902092631 79 151 0.0 2.0 0.00 0.00 0.00 80 1005.1
20260902092531 79 176 0.0 2.0 0.00 0.00 0.00 81 1005.1
20260902092432 79 176 0.0 2.0 0.00 0.00 0.00 81 1005.1
20260902092332 79 178 0.0 2.0 0.00 0.00 0.00 81 1005.0
20260902092232 79 178 0.0 2.0 0.00 0.00 0.00 81 1005.1
20260902092131 79 178 0.0 2.0 0.00 0.00 0.00 81 1005.0
20260902092036 79 178 0.0 2.0 0.00 0.00 0.00 81 1005.0
20260902091926 79 178 0.0 2.0 0.00 0.00 0.00 81 1005.0
20260902091825 79 178 0.0 2.0 0.00 0.00 0.00 81 1005.0
20260902091713 79 178 0.0 0.0 0.00 0.00 0.00 81 1005.0
20260902091614 79 178 0.0 0.0 0.00 0.00 0.00 81 1005.0
20260902091514 79 176 0.0 0.0 0.00 0.00 0.00 81 1005.1
20260902091412 79 176 0.0 0.0 0.00 0.00 0.00 81 1005.1
20260902091314 79 176 0.0 0.0 0.00 0.00 0.00 81 1005.0
20260902091215 79 176 0.0 0.0 0.00 0.00 0.00 81 1005.1
20260902091114 79 176 0.0 0.0 0.00 0.00 0.00 81 1005.1
20260902091013 79 176 0.0 2.0 0.00 0.00 0.00 81 1005.1
20260902090912 79 176 0.0 2.0 0.00 0.00 0.00 81 1005.1
20260902090813 79 176 0.0 2.0 0.00 0.00 0.00 81 1005.1
20260902090713 79 176 0.0 2.0 0.00 0.00 0.00 81 1005.1
20260902090614 79 176 0.0 2.0 0.00 0.00 0.00 81 1005.1
20260902090512 79 176 0.0 2.0 0.00 0.00 0.00 81 1005.1
20260902090413 79 176 0.0 2.0 0.00 0.00 0.00 81 1005.1
20260902090314 79 176 0.0 2.0 0.00 0.00 0.00 81 1005.1
20260902090215 79 178 0.0 2.0 0.00 0.00 0.00 81 1005.1
20260902090112 79 178 0.0 2.0 0.00 0.00 0.00 81 1005.0
20260902090014 79 161 0.0 1.0 0.00 0.00 0.00 81 1005.0
20260902085914 79 106 0.0 0.0 0.00 0.00 0.00 81 1005.0
20260902085815 79 106 0.0 0.0 0.00 0.00 0.00 81 1005.0
20260902085714 79 106 0.0 0.0 0.00 0.00 0.00 81 1005.0
20260902085612 79 106 0.0 0.0 0.00 0.00 0.00 81 1005.1
20260902085512 79 106 0.0 0.0 0.00 0.00 0.00 81 1005.0
20260902085416 79 106 0.0 0.0 0.00 0.00 0.00 81 1005.1
20260902085314 79 106 0.0 2.0 0.00 0.00 0.00 81 1005.2
20260902085213 79 106 0.0 2.0 0.00 0.00 0.00 81 1005.1
20260902085112 79 106 0.0 2.0 0.00 0.00 0.00 81 1005.1
20260902085012 79 106 0.0 2.0 0.00 0.00 0.00 82 1005.1
20260902084912 79 106 0.0 2.0 0.00 0.00 0.00 82 1005.1
20260902084812 79 106 0.0 2.0 0.00 0.00 0.00 82 1005.1
20260902084712 79 106 0.0 2.0 0.00 0.00 0.00 82 1005.0
20260902084612 79 106 0.0 2.0 0.00 0.00 0.00 82 1005.0
20260902084513 79 106 0.0 2.0 0.00 0.00 0.00 82 1005.0
20260902084412 79 106 0.0 2.0 0.00 0.00 0.00 82 1005.0
20260902084313 79 130 0.0 1.0 0.00 0.00 0.00 82 1005.0
20260902084213 79 130 0.0 1.0 0.00 0.00 0.00 82 1004.9
20260902084112 79 130 0.0 1.0 0.00 0.00 0.00 82 1004.9
20260902084014 79 130 0.0 1.0 0.00 0.00 0.00 82 1004.9
20260902083911 79 130 0.0 1.0 0.00 0.00 0.00 82 1005.0
20260902083813 79 133 0.0 1.0 0.00 0.00 0.00 82 1004.9
20260902083712 79 133 0.0 1.0 0.00 0.00 0.00 82 1004.9
20260902083616 79 133 0.0 1.0 0.00 0.00 0.00 82 1004.9
20260902083514 78 133 0.0 1.0 0.00 0.00 0.00 82 1004.9
20260902083411 78 133 0.0 1.0 0.00 0.00 0.00 82 1004.9
20260902083311 78 116 0.0 1.0 0.00 0.00 0.00 82 1004.9
20260902083212 78 13 0.0 0.0 0.00 0.00 0.00 82 1004.9
20260902083114 78 14 0.0 0.0 0.00 0.00 0.00 82 1004.9
20260902083013 78 14 0.0 0.0 0.00 0.00 0.00 82 1004.9
20260902082904 78 14 0.0 0.0 0.00 0.00 0.00 82 1004.8
20260902082806 78 14 0.0 0.0 0.00 0.00 0.00 82 1004.8
20260902082703 78 14 0.0 0.0 0.00 0.00 0.00 82 1004.8
20260902082603 78 16 0.0 0.0 0.00 0.00 0.00 82 1004.9
20260902082502 78 14 0.0 0.0 0.00 0.00 0.00 82 1004.8
20260902082403 78 0 0.0 0.0 0.00 0.00 0.00 82 1004.8
20260902082309 78 0 0.0 0.0 0.00 0.00 0.00 82 1004.8
20260902082202 78 0 0.0 0.0 0.00 0.00 0.00 82 1004.8
20260902082103 78 0 0.0 0.0 0.00 0.00 0.00 82 1004.8
20260902082002 78 0 0.0 0.0 0.00 0.00 0.00 82 1004.8
20260902081905 78 0 0.0 0.0 0.00 0.00 0.00 82 1004.8
20260902081803 78 0 0.0 0.0 0.00 0.00 0.00 82 1004.8
20260902081702 78 0 0.0 0.0 0.00 0.00 0.00 82 1004.8
20260902081602 78 0 0.0 0.0 0.00 0.00 0.00 82 1004.8
20260902081502 78 0 0.0 0.0 0.00 0.00 0.00 82 1004.8
20260902081403 78 0 0.0 0.0 0.00 0.00 0.00 82 1004.8
20260902081303 78 0 0.0 0.0 0.00 0.00 0.00 82 1004.9
20260902081204 78 0 0.0 0.0 0.00 0.00 0.00 82 1004.9
20260902081102 78 0 0.0 0.0 0.00 0.00 0.00 82 1004.9
20260902081002 78 0 0.0 0.0 0.00 0.00 0.00 82 1004.9
20260902080902 78 0 0.0 0.0 0.00 0.00 0.00 82 1004.9
20260902080802 78 0 0.0 0.0 0.00 0.00 0.00 82 1005.0
20260902080701 78 0 0.0 0.0 0.00 0.00 0.00 82 1004.9
20260902080602 78 0 0.0 0.0 0.00 0.00 0.00 82 1004.9
20260902080505 78 0 0.0 0.0 0.00 0.00 0.00 82 1005.0
20260902080403 78 0 0.0 0.0 0.00 0.00 0.00 82 1005.0
20260902080303 78 0 0.0 0.0 0.00 0.00 0.00 82 1004.9
20260902080202 78 0 0.0 0.0 0.00 0.00 0.00 82 1005.0
20260902080104 78 0 0.0 0.0 0.00 0.00 0.00 82 1005.0
20260902080004 78 0 0.0 0.0 0.00 0.00 0.00 82 1005.0
20260902075903 78 0 0.0 0.0 0.00 0.00 0.00 82 1005.0
20260902075804 78 0 0.0 0.0 0.00 0.00 0.00 82 1005.0
20260902075703 78 0 0.0 0.0 0.00 0.00 0.00 82 1005.0
20260902075602 78 0 0.0 0.0 0.00 0.00 0.00 82 1005.0
20260902075502 78 0 0.0 0.0 0.00 0.00 0.00 82 1005.0
20260902075403 78 0 0.0 0.0 0.00 0.00 0.00 82 1005.0
20260902075306 78 0 0.0 0.0 0.00 0.00 0.00 82 1005.0
20260902075203 78 0 0.0 0.0 0.00 0.00 0.00 82 1005.0
20260902075104 78 0 0.0 1.0 0.00 0.00 0.00 82 1005.0
20260902075003 78 0 0.0 1.0 0.00 0.00 0.00 82 1005.0
20260902074902 78 0 0.0 1.0 0.00 0.00 0.00 82 1005.0
20260902074802 78 0 0.0 1.0 0.00 0.00 0.00 82 1005.1
20260902074703 78 0 0.0 1.0 0.00 0.00 0.00 82 1005.1
20260902074603 78 0 0.0 1.0 0.00 0.00 0.00 82 1005.1
20260902074502 78 0 0.0 1.0 0.00 0.00 0.00 82 1005.1
20260902074403 78 0 0.0 1.0 0.00 0.00 0.00 82 1005.1
20260902074302 78 0 0.0 1.0 0.00 0.00 0.00 82 1005.0
20260902074202 78 0 0.0 1.0 0.00 0.00 0.00 82 1005.0
20260902074103 78 251 0.0 1.0 0.00 0.00 0.00 82 1005.0
20260902074002 78 251 0.0 1.0 0.00 0.00 0.00 82 1005.0
20260902073902 78 251 0.0 1.0 0.00 0.00 0.00 82 1005.0
20260902073803 78 252 0.0 0.0 0.00 0.00 0.00 82 1005.0
20260902073702 78 252 0.0 0.0 0.00 0.00 0.00 82 1005.0
20260902073604 78 252 0.0 0.0 0.00 0.00 0.00 82 1004.9
20260902073504 78 252 0.0 0.0 0.00 0.00 0.00 82 1005.1
20260902073402 78 252 0.0 0.0 0.00 0.00 0.00 82 1005.0
20260902073303 78 252 0.0 0.0 0.00 0.00 0.00 82 1005.0
20260902073203 78 252 0.0 0.0 0.00 0.00 0.00 82 1005.0
20260902073103 78 252 0.0 0.0 0.00 0.00 0.00 82 1005.1
20260902073004 78 252 0.0 0.0 0.00 0.00 0.00 82 1005.1
20260902072903 78 252 0.0 0.0 0.00 0.00 0.00 82 1005.1
20260902072802 78 252 0.0 0.0 0.00 0.00 0.00 82 1005.1
20260902072702 78 252 0.0 0.0 0.00 0.00 0.00 82 1005.2
20260902072602 78 252 0.0 0.0 0.00 0.00 0.00 82 1005.2
20260902072503 78 252 0.0 0.0 0.00 0.00 0.00 82 1005.2
20260902072402 78 252 0.0 0.0 0.00 0.00 0.00 82 1005.2
20260902072308 78 252 0.0 0.0 0.00 0.00 0.00 82 1005.2
20260902072204 78 252 0.0 0.0 0.00 0.00 0.00 82 1005.2
20260902072102 78 252 0.0 0.0 0.00 0.00 0.00 82 1005.3
20260902072004 78 252 0.0 0.0 0.00 0.00 0.00 82 1005.3
20260902071904 78 252 0.0 0.0 0.00 0.00 0.00 82 1005.2
20260902071803 78 252 0.0 0.0 0.00 0.00 0.00 82 1005.2
20260902071702 78 252 0.0 0.0 0.00 0.00 0.00 82 1005.3
20260902071603 78 252 0.0 0.0 0.00 0.00 0.00 82 1005.3
20260902071503 78 252 0.0 0.0 0.00 0.00 0.00 82 1005.2
20260902071404 78 252 0.0 0.0 0.00 0.00 0.00 82 1005.2
20260902071302 78 252 0.0 0.0 0.00 0.00 0.00 82 1005.2
20260902071202 78 252 0.0 0.0 0.00 0.00 0.00 82 1005.3
20260902071103 78 252 0.0 0.0 0.00 0.00 0.00 82 1005.3
20260902071002 78 252 0.0 0.0 0.00 0.00 0.00 82 1005.3
20260902070903 78 252 0.0 0.0 0.00 0.00 0.00 82 1005.3
20260902070802 78 252 0.0 0.0 0.00 0.00 0.00 82 1005.2
20260902070703 78 252 0.0 0.0 0.00 0.00 0.00 82 1005.3
20260902070604 78 252 0.0 0.0 0.00 0.00 0.00 82 1005.4
20260902070503 78 252 0.0 0.0 0.00 0.00 0.00 82 1005.3
20260902070404 78 252 0.0 0.0 0.00 0.00 0.00 82 1005.3
20260902070304 78 252 0.0 0.0 0.00 0.00 0.00 82 1005.3
20260902070202 78 252 0.0 0.0 0.00 0.00 0.00 82 1005.3
20260902070104 78 252 0.0 0.0 0.00 0.00 0.00 82 1005.3
20260902070003 78 252 0.0 0.0 0.00 0.00 0.00 82 1005.3
20260902065904 78 252 0.0 0.0 0.00 0.00 0.00 82 1005.4
20260902065802 78 252 0.0 0.0 0.00 0.00 0.00 82 1005.3
20260902065703 78 252 0.0 0.0 0.00 0.00 0.00 82 1005.3
20260902065602 78 252 0.0 0.0 0.00 0.00 0.00 82 1005.4
20260902065503 78 252 0.0 0.0 0.00 0.00 0.00 82 1005.3
20260902065403 78 252 0.0 0.0 0.00 0.00 0.00 82 1005.4
20260902065306 78 252 0.0 0.0 0.00 0.00 0.00 82 1005.4
20260902065203 78 252 0.0 0.0 0.00 0.00 0.00 82 1005.4
20260902065104 78 252 0.0 0.0 0.00 0.00 0.00 82 1005.4
20260902065003 78 252 0.0 0.0 0.00 0.00 0.00 82 1005.5
20260902064902 78 252 0.0 0.0 0.00 0.00 0.00 82 1005.4
20260902064802 78 252 0.0 0.0 0.00 0.00 0.00 82 1005.4
20260902064704 78 252 0.0 0.0 0.00 0.00 0.00 82 1005.4
20260902064603 78 252 0.0 0.0 0.00 0.00 0.00 82 1005.4
20260902064506 78 252 0.0 0.0 0.00 0.00 0.00 82 1005.4
20260902064358 78 252 0.0 0.0 0.00 0.00 0.00 82 1005.5
20260902064255 78 252 0.0 0.0 0.00 0.00 0.00 82 1005.4
20260902064153 78 252 0.0 0.0 0.00 0.00 0.00 82 1005.5
20260902064052 78 252 0.0 0.0 0.00 0.00 0.00 82 1005.4
20260902063950 78 252 0.0 0.0 0.00 0.00 0.00 82 1005.5
20260902063848 78 252 0.0 0.0 0.00 0.00 0.00 82 1005.4
20260902063748 78 252 0.0 0.0 0.00 0.00 0.00 82 1005.4
20260902063645 78 252 0.0 0.0 0.00 0.00 0.00 82 1005.5
20260902063541 78 252 0.0 0.0 0.00 0.00 0.00 82 1005.4
20260902063436 78 252 0.0 0.0 0.00 0.00 0.00 82 1005.3
20260902063333 78 252 0.0 0.0 0.00 0.00 0.00 82 1005.3
20260902063232 78 252 0.0 0.0 0.00 0.00 0.00 82 1005.4
20260902063132 78 252 0.0 0.0 0.00 0.00 0.00 82 1005.3
20260902063031 78 252 0.0 0.0 0.00 0.00 0.00 82 1005.3
20260902062934 78 252 0.0 0.0 0.00 0.00 0.00 82 1005.3
20260902062833 78 252 0.0 0.0 0.00 0.00 0.00 82 1005.3
20260902062733 78 252 0.0 0.0 0.00 0.00 0.00 82 1005.3
20260902062632 78 252 0.0 0.0 0.00 0.00 0.00 82 1005.3
20260902062530 78 252 0.0 0.0 0.00 0.00 0.00 82 1005.4
20260902062434 78 252 0.0 0.0 0.00 0.00 0.00 82 1005.3
20260902062333 78 252 0.0 0.0 0.00 0.00 0.00 82 1005.3
20260902062232 78 252 0.0 0.0 0.00 0.00 0.00 82 1005.3
20260902062131 78 252 0.0 0.0 0.00 0.00 0.00 82 1005.3
20260902062031 78 252 0.0 0.0 0.00 0.00 0.00 82 1005.2
20260902061933 78 252 0.0 0.0 0.00 0.00 0.00 82 1005.3
20260902061832 78 252 0.0 0.0 0.00 0.00 0.00 82 1005.2
20260902061732 78 252 0.0 0.0 0.00 0.00 0.00 82 1005.2
20260902061630 78 252 0.0 0.0 0.00 0.00 0.00 82 1005.3
20260902061532 78 252 0.0 0.0 0.00 0.00 0.00 82 1005.2
20260902061431 78 252 0.0 0.0 0.00 0.00 0.00 82 1005.2
20260902061333 78 252 0.0 0.0 0.00 0.00 0.00 82 1005.3
20260902061233 78 252 0.0 0.0 0.00 0.00 0.00 82 1005.2
20260902061132 78 252 0.0 0.0 0.00 0.00 0.00 82 1005.2
20260902061033 78 252 0.0 0.0 0.00 0.00 0.00 82 1005.2
20260902060931 78 252 0.0 0.0 0.00 0.00 0.00 82 1005.2
20260902060831 78 252 0.0 0.0 0.00 0.00 0.00 82 1005.2
20260902060732 78 252 0.0 0.0 0.00 0.00 0.00 82 1005.2
20260902060638 78 252 0.0 0.0 0.00 0.00 0.00 82 1005.2
20260902060532 78 252 0.0 0.0 0.00 0.00 0.00 81 1005.2
20260902060433 78 252 0.0 0.0 0.00 0.00 0.00 81 1005.2
20260902060326 78 252 0.0 0.0 0.00 0.00 0.00 81 1005.2
20260902060223 78 252 0.0 0.0 0.00 0.00 0.00 81 1005.1
20260902060110 78 252 0.0 0.0 0.00 0.00 0.00 81 1005.1
20260902060008 78 252 0.0 0.0 0.00 0.00 0.00 81 1005.2
20260902055908 78 252 0.0 0.0 0.00 0.00 0.00 81 1005.2
20260902055809 78 252 0.0 0.0 0.00 0.00 0.00 81 1005.2
20260902055708 78 252 0.0 0.0 0.00 0.00 0.00 81 1005.1
20260902055609 78 252 0.0 0.0 0.00 0.00 0.00 81 1005.1
20260902055509 78 252 0.0 0.0 0.00 0.00 0.00 81 1005.1
20260902055409 78 252 0.0 0.0 0.00 0.00 0.00 81 1005.1
20260902055308 78 252 0.0 0.0 0.00 0.00 0.00 81 1005.2
20260902055208 78 252 0.0 0.0 0.00 0.00 0.00 81 1005.1
20260902055110 78 252 0.0 0.0 0.00 0.00 0.00 81 1005.2
20260902055010 78 252 0.0 0.0 0.00 0.00 0.00 81 1005.1
20260902054910 78 252 0.0 0.0 0.00 0.00 0.00 81 1005.1
20260902054811 78 252 0.0 0.0 0.00 0.00 0.00 81 1005.2
20260902054710 78 252 0.0 0.0 0.00 0.00 0.00 81 1005.1
20260902054608 78 252 0.0 0.0 0.00 0.00 0.00 81 1005.1
20260902054508 78 252 0.0 0.0 0.00 0.00 0.00 81 1005.1
20260902054408 78 252 0.0 0.0 0.00 0.00 0.00 81 1005.1
20260902054308 78 252 0.0 0.0 0.00 0.00 0.00 81 1005.1
20260902054209 78 252 0.0 0.0 0.00 0.00 0.00 81 1005.1
20260902054108 78 252 0.0 0.0 0.00 0.00 0.00 81 1005.0
20260902054010 78 252 0.0 0.0 0.00 0.00 0.00 81 1005.0
20260902053910 78 252 0.0 0.0 0.00 0.00 0.00 81 1005.0
20260902053808 78 252 0.0 0.0 0.00 0.00 0.00 81 1005.0
20260902053705 78 252 0.0 0.0 0.00 0.00 0.00 81 1005.0
20260902053605 78 252 0.0 0.0 0.00 0.00 0.00 81 1004.9
20260902053504 78 252 0.0 0.0 0.00 0.00 0.00 81 1005.0
20260902053402 78 252 0.0 0.0 0.00 0.00 0.00 81 1004.9
20260902053302 78 252 0.0 0.0 0.00 0.00 0.00 81 1004.9
20260902053205 78 252 0.0 0.0 0.00 0.00 0.00 81 1004.9
20260902053102 78 252 0.0 0.0 0.00 0.00 0.00 81 1005.0
20260902053004 78 252 0.0 0.0 0.00 0.00 0.00 81 1004.9
20260902052905 78 252 0.0 0.0 0.00 0.00 0.00 81 1005.0
20260902052803 78 252 0.0 0.0 0.00 0.00 0.00 81 1005.0
20260902052704 78 252 0.0 0.0 0.00 0.00 0.00 81 1005.0
20260902052604 78 252 0.0 0.0 0.00 0.00 0.00 81 1005.1
20260902052503 78 252 0.0 0.0 0.00 0.00 0.00 81 1005.1
20260902052406 78 252 0.0 0.0 0.00 0.00 0.00 81 1005.2
20260902052306 78 252 0.0 0.0 0.00 0.00 0.00 81 1005.2
20260902052203 78 252 0.0 0.0 0.00 0.00 0.00 81 1005.2
20260902052103 78 252 0.0 0.0 0.00 0.00 0.00 81 1005.2
20260902052002 78 252 0.0 0.0 0.00 0.00 0.00 81 1005.3
20260902051905 78 252 0.0 0.0 0.00 0.00 0.00 81 1005.2
20260902051803 78 252 0.0 0.0 0.00 0.00 0.00 81 1005.3
20260902051704 78 252 0.0 0.0 0.00 0.00 0.00 81 1005.3
20260902051603 78 252 0.0 0.0 0.00 0.00 0.00 81 1005.3
20260902051505 78 252 0.0 0.0 0.00 0.00 0.00 81 1005.3
20260902051404 78 252 0.0 0.0 0.00 0.00 0.00 81 1005.3
20260902051303 78 252 0.0 0.0 0.00 0.00 0.00 81 1005.3
20260902051204 78 252 0.0 0.0 0.00 0.00 0.00 81 1005.3
20260902051102 78 252 0.0 0.0 0.00 0.00 0.00 81 1005.3
20260902051002 78 252 0.0 0.0 0.00 0.00 0.00 81 1005.3
20260902050903 78 252 0.0 0.0 0.00 0.00 0.00 81 1005.3
20260902050803 78 252 0.0 0.0 0.00 0.00 0.00 81 1005.2
20260902050704 78 252 0.0 0.0 0.00 0.00 0.00 81 1005.3
20260902050605 78 252 0.0 0.0 0.00 0.00 0.00 81 1005.2
20260902050502 78 252 0.0 0.0 0.00 0.00 0.00 81 1005.2
20260902050402 78 252 0.0 0.0 0.00 0.00 0.00 81 1005.2
20260902050303 78 252 0.0 0.0 0.00 0.00 0.00 81 1005.2
20260902050204 78 252 0.0 0.0 0.00 0.00 0.00 81 1005.2
20260902050104 78 252 0.0 0.0 0.00 0.00 0.00 81 1005.2
20260902050004 78 252 0.0 0.0 0.00 0.00 0.00 81 1005.2
20260902045902 79 252 0.0 0.0 0.00 0.00 0.00 81 1005.2
20260902045802 79 252 0.0 0.0 0.00 0.00 0.00 81 1005.2
20260902045702 79 252 0.0 0.0 0.00 0.00 0.00 81 1005.2
20260902045604 79 252 0.0 0.0 0.00 0.00 0.00 81 1005.2
20260902045504 79 252 0.0 0.0 0.00 0.00 0.00 81 1005.2
20260902045403 79 252 0.0 0.0 0.00 0.00 0.00 80 1005.2
20260902045306 79 252 0.0 0.0 0.00 0.00 0.00 80 1005.1
20260902045204 79 252 0.0 0.0 0.00 0.00 0.00 80 1005.2
20260902045103 79 252 0.0 0.0 0.00 0.00 0.00 80 1005.1
20260902045004 79 252 0.0 0.0 0.00 0.00 0.00 80 1005.1
20260902044904 79 252 0.0 0.0 0.00 0.00 0.00 80 1005.1
20260902044803 79 252 0.0 0.0 0.00 0.00 0.00 80 1005.1
20260902044703 79 252 0.0 0.0 0.00 0.00 0.00 80 1005.1
20260902044603 79 252 0.0 0.0 0.00 0.00 0.00 80 1005.1
20260902044504 79 252 0.0 0.0 0.00 0.00 0.00 80 1005.1
20260902044402 79 252 0.0 0.0 0.00 0.00 0.00 80 1005.2
20260902044304 79 252 0.0 0.0 0.00 0.00 0.00 80 1005.2
20260902044203 79 252 0.0 0.0 0.00 0.00 0.00 80 1005.2
20260902044103 79 252 0.0 0.0 0.00 0.00 0.00 80 1005.2
20260902044004 79 252 0.0 0.0 0.00 0.00 0.00 80 1005.2
20260902043905 79 252 0.0 0.0 0.00 0.00 0.00 80 1005.2
20260902043804 79 252 0.0 0.0 0.00 0.00 0.00 80 1005.3
20260902043703 79 252 0.0 0.0 0.00 0.00 0.00 80 1005.3
20260902043604 79 252 0.0 0.0 0.00 0.00 0.00 80 1005.3
20260902043504 79 252 0.0 0.0 0.00 0.00 0.00 80 1005.4
20260902043405 79 252 0.0 0.0 0.00 0.00 0.00 80 1005.3
20260902043302 79 252 0.0 0.0 0.00 0.00 0.00 80 1005.4
20260902043203 79 252 0.0 0.0 0.00 0.00 0.00 80 1005.3
20260902043103 79 252 0.0 0.0 0.00 0.00 0.00 80 1005.3
20260902043004 79 252 0.0 0.0 0.00 0.00 0.00 80 1005.3
20260902042902 79 252 0.0 0.0 0.00 0.00 0.00 80 1005.3
20260902042803 79 252 0.0 0.0 0.00 0.00 0.00 80 1005.3
20260902042703 79 252 0.0 0.0 0.00 0.00 0.00 80 1005.3
20260902042602 79 252 0.0 0.0 0.00 0.00 0.00 80 1005.3
20260902042502 79 252 0.0 0.0 0.00 0.00 0.00 80 1005.4
20260902042402 79 252 0.0 0.0 0.00 0.00 0.00 80 1005.4
20260902042308 79 252 0.0 0.0 0.00 0.00 0.00 79 1005.4
20260902042206 79 252 0.0 0.0 0.00 0.00 0.00 79 1005.4
20260902042104 79 252 0.0 0.0 0.00 0.00 0.00 79 1005.4
20260902042003 79 252 0.0 0.0 0.00 0.00 0.00 79 1005.5
20260902041903 79 252 0.0 0.0 0.00 0.00 0.00 79 1005.6
20260902041808 79 252 0.0 0.0 0.00 0.00 0.00 79 1005.6
20260902041703 79 252 0.0 0.0 0.00 0.00 0.00 79 1005.6
20260902041603 79 252 0.0 0.0 0.00 0.00 0.00 79 1005.6
20260902041503 79 252 0.0 0.0 0.00 0.00 0.00 79 1005.6
20260902041402 79 252 0.0 0.0 0.00 0.00 0.00 79 1005.7
20260902041303 79 252 0.0 0.0 0.00 0.00 0.00 79 1005.6
20260902041203 79 252 0.0 0.0 0.00 0.00 0.00 79 1005.6
20260902041103 80 252 0.0 0.0 0.00 0.00 0.00 79 1005.6
20260902041004 80 252 0.0 0.0 0.00 0.00 0.00 79 1005.6
20260902040903 80 252 0.0 0.0 0.00 0.00 0.00 79 1005.6
20260902040804 80 252 0.0 0.0 0.00 0.00 0.00 79 1005.6
20260902040702 80 252 0.0 0.0 0.00 0.00 0.00 79 1005.6
20260902040604 80 252 0.0 0.0 0.00 0.00 0.00 79 1005.5
20260902040507 80 252 0.0 0.0 0.00 0.00 0.00 79 1005.5
20260902040405 80 252 0.0 0.0 0.00 0.00 0.00 79 1005.5
20260902040303 80 252 0.0 0.0 0.00 0.00 0.00 79 1005.5
20260902040202 80 252 0.0 0.0 0.00 0.00 0.00 79 1005.4
20260902040004 80 252 0.0 0.0 0.00 0.00 0.00 79 1005.5
20260902035903 80 252 0.0 0.0 0.00 0.00 0.00 79 1005.6
20260902035804 80 252 0.0 0.0 0.00 0.00 0.00 79 1005.5
20260902035704 80 252 0.0 0.0 0.00 0.00 0.00 79 1005.5
20260902035605 80 252 0.0 0.0 0.00 0.00 0.00 79 1005.5
20260902035504 80 252 0.0 0.0 0.00 0.00 0.00 79 1005.6
20260902035404 80 252 0.0 0.0 0.00 0.00 0.00 79 1005.6
20260902035305 80 252 0.0 0.0 0.00 0.00 0.00 79 1005.6
20260902035204 80 252 0.0 0.0 0.00 0.00 0.00 79 1005.5
20260902035103 80 252 0.0 0.0 0.00 0.00 0.00 79 1005.5
20260902035002 80 252 0.0 0.0 0.00 0.00 0.00 78 1005.5
20260902034903 80 252 0.0 0.0 0.00 0.00 0.00 78 1005.5
20260902034802 80 252 0.0 0.0 0.00 0.00 0.00 78 1005.6
20260902034705 80 252 0.0 0.0 0.00 0.00 0.00 78 1005.5
20260902034604 80 252 0.0 0.0 0.00 0.00 0.00 78 1005.5
20260902034504 80 252 0.0 0.0 0.00 0.00 0.00 78 1005.5
20260902034403 80 252 0.0 0.0 0.00 0.00 0.00 78 1005.5
20260902034305 80 252 0.0 0.0 0.00 0.00 0.00 78 1005.6
20260902034203 80 252 0.0 0.0 0.00 0.00 0.00 78 1005.6
20260902034104 80 252 0.0 0.0 0.00 0.00 0.00 78 1005.6
20260902034001 80 252 0.0 0.0 0.00 0.00 0.00 78 1005.5
20260902033901 80 252 0.0 0.0 0.00 0.00 0.00 78 1005.6
20260902033747 80 252 0.0 0.0 0.00 0.00 0.00 78 1005.7
20260902033648 80 252 0.0 0.0 0.00 0.00 0.00 78 1005.7
20260902033550 80 252 0.0 0.0 0.00 0.00 0.00 78 1005.6
20260902033446 80 252 0.0 0.0 0.00 0.00 0.00 78 1005.7
20260902033346 80 252 0.0 0.0 0.00 0.00 0.00 78 1005.8
20260902033243 80 252 0.0 0.0 0.00 0.00 0.00 78 1005.7
20260902033138 80 252 0.0 0.0 0.00 0.00 0.00 78 1005.7
20260902033034 80 252 0.0 0.0 0.00 0.00 0.00 78 1005.7
20260902032932 80 252 0.0 0.0 0.00 0.00 0.00 78 1005.6
20260902032825 80 252 0.0 0.0 0.00 0.00 0.00 78 1005.7
20260902032723 80 252 0.0 0.0 0.00 0.00 0.00 78 1005.6
20260902032624 80 252 0.0 0.0 0.00 0.00 0.00 78 1005.6
20260902032526 81 252 0.0 0.0 0.00 0.00 0.00 78 1005.7
20260902032422 81 252 0.0 0.0 0.00 0.00 0.00 78 1005.7
20260902032315 81 252 0.0 0.0 0.00 0.00 0.00 78 1005.6
20260902032206 81 252 0.0 0.0 0.00 0.00 0.00 78 1005.6
20260902032106 81 252 0.0 0.0 0.00 0.00 0.00 78 1005.6
20260902032005 81 252 0.0 0.0 0.00 0.00 0.00 78 1005.6
20260902031904 81 252 0.0 0.0 0.00 0.00 0.00 78 1005.7
20260902031804 81 252 0.0 0.0 0.00 0.00 0.00 78 1005.6
20260902031705 81 252 0.0 0.0 0.00 0.00 0.00 78 1005.6
20260902031605 81 252 0.0 0.0 0.00 0.00 0.00 78 1005.6
20260902031505 81 252 0.0 0.0 0.00 0.00 0.00 78 1005.6
20260902031405 81 252 0.0 0.0 0.00 0.00 0.00 77 1005.5
20260902031304 81 252 0.0 0.0 0.00 0.00 0.00 77 1005.6
20260902031204 81 252 0.0 0.0 0.00 0.00 0.00 77 1005.5
20260902031105 81 252 0.0 0.0 0.00 0.00 0.00 77 1005.5
20260902031004 81 252 0.0 0.0 0.00 0.00 0.00 77 1005.5
20260902030904 81 252 0.0 0.0 0.00 0.00 0.00 77 1005.5
20260902030806 81 252 0.0 0.0 0.00 0.00 0.00 77 1005.5
20260902030704 81 252 0.0 0.0 0.00 0.00 0.00 77 1005.4
20260902030604 81 252 0.0 0.0 0.00 0.00 0.00 77 1005.4
20260902030504 81 252 0.0 0.0 0.00 0.00 0.00 77 1005.4
20260902030404 81 252 0.0 0.0 0.00 0.00 0.00 77 1005.3
20260902030305 81 252 0.0 0.0 0.00 0.00 0.00 77 1005.4
20260902030205 81 252 0.0 0.0 0.00 0.00 0.00 77 1005.3
20260902030104 81 252 0.0 0.0 0.00 0.00 0.00 77 1005.4
20260902030006 81 252 0.0 0.0 0.00 0.00 0.00 77 1005.3
20260902025905 81 252 0.0 0.0 0.00 0.00 0.00 77 1005.3
20260902025804 81 252 0.0 0.0 0.00 0.00 0.00 77 1005.2
20260902025704 81 252 0.0 0.0 0.00 0.00 0.00 77 1005.3
20260902025604 81 252 0.0 0.0 0.00 0.00 0.00 77 1005.3
20260902025505 81 252 0.0 0.0 0.00 0.00 0.00 77 1005.3
20260902025405 81 252 0.0 0.0 0.00 0.00 0.00 77 1005.3
20260902025306 81 252 0.0 0.0 0.00 0.00 0.00 77 1005.2
20260902025204 81 252 0.0 0.0 0.00 0.00 0.00 77 1005.2
20260902025104 81 252 0.0 0.0 0.00 0.00 0.00 77 1005.2
20260902025004 81 252 0.0 0.0 0.00 0.00 0.00 77 1005.2
20260902024904 81 252 0.0 0.0 0.00 0.00 0.00 77 1005.2
20260902024804 81 252 0.0 0.0 0.00 0.00 0.00 77 1005.2
20260902024705 81 252 0.0 0.0 0.00 0.00 0.00 77 1005.2
20260902024605 82 252 0.0 0.0 0.00 0.00 0.00 77 1005.2
20260902024504 82 252 0.0 0.0 0.00 0.00 0.00 77 1005.2
20260902024404 82 252 0.0 0.0 0.00 0.00 0.00 77 1005.1
20260902024304 82 252 0.0 0.0 0.00 0.00 0.00 77 1005.2
20260902024204 82 252 0.0 0.0 0.00 0.00 0.00 77 1005.2
20260902024105 82 252 0.0 0.0 0.00 0.00 0.00 77 1005.2
20260902024004 82 252 0.0 0.0 0.00 0.00 0.00 77 1005.2
20260902023904 82 252 0.0 0.0 0.00 0.00 0.00 77 1005.1
20260902023804 82 252 0.0 0.0 0.00 0.00 0.00 77 1005.1
20260902023704 82 252 0.0 0.0 0.00 0.00 0.00 77 1005.1
20260902023604 82 252 0.0 0.0 0.00 0.00 0.00 77 1005.0
20260902023503 82 252 0.0 0.0 0.00 0.00 0.00 77 1005.0
20260902023404 82 252 0.0 0.0 0.00 0.00 0.00 77 1005.0
20260902023303 82 252 0.0 0.0 0.00 0.00 0.00 77 1005.0
20260902023205 82 252 0.0 0.0 0.00 0.00 0.00 76 1005.0
20260902023104 82 252 0.0 0.0 0.00 0.00 0.00 76 1004.9
20260902023003 82 252 0.0 0.0 0.00 0.00 0.00 76 1004.9
20260902022905 82 252 0.0 0.0 0.00 0.00 0.00 76 1004.9
20260902022804 82 252 0.0 0.0 0.00 0.00 0.00 76 1004.9
20260902022704 82 252 0.0 0.0 0.00 0.00 0.00 76 1004.8
20260902022604 82 252 0.0 0.0 0.00 0.00 0.00 76 1004.8
20260902022504 82 252 0.0 0.0 0.00 0.00 0.00 76 1004.8
20260902022404 82 252 0.0 0.0 0.00 0.00 0.00 76 1004.8
20260902022306 82 252 0.0 0.0 0.00 0.00 0.00 76 1004.8
20260902022203 82 252 0.0 0.0 0.00 0.00 0.00 76 1004.8
20260902022103 82 252 0.0 0.0 0.00 0.00 0.00 76 1004.8
20260902022004 82 252 0.0 0.0 0.00 0.00 0.00 76 1004.9
20260902021904 82 252 0.0 0.0 0.00 0.00 0.00 76 1004.8
20260902021804 82 252 0.0 0.0 0.00 0.00 0.00 76 1004.8
20260902021703 82 252 0.0 0.0 0.00 0.00 0.00 76 1004.8
20260902021603 82 252 0.0 0.0 0.00 0.00 0.00 76 1004.8
20260902021504 82 252 0.0 0.0 0.00 0.00 0.00 76 1004.8
20260902021403 82 252 0.0 0.0 0.00 0.00 0.00 76 1004.8
20260902021303 82 252 0.0 0.0 0.00 0.00 0.00 76 1004.8
20260902021203 82 252 0.0 0.0 0.00 0.00 0.00 76 1004.7
20260902021103 82 252 0.0 0.0 0.00 0.00 0.00 76 1004.7
20260902021003 82 252 0.0 0.0 0.00 0.00 0.00 76 1004.7
20260902020904 82 252 0.0 0.0 0.00 0.00 0.00 76 1004.6
20260902020803 82 252 0.0 0.0 0.00 0.00 0.00 76 1004.6
20260902020703 82 252 0.0 0.0 0.00 0.00 0.00 76 1004.6
20260902020605 82 252 0.0 0.0 0.00 0.00 0.00 76 1004.5
20260902020504 82 252 0.0 0.0 0.00 0.00 0.00 76 1004.5
20260902020403 82 252 0.0 0.0 0.00 0.00 0.00 76 1004.5
20260902020303 83 252 0.0 0.0 0.00 0.00 0.00 75 1004.5
20260902020204 83 252 0.0 0.0 0.00 0.00 0.00 75 1004.5
20260902020103 83 252 0.0 0.0 0.00 0.00 0.00 75 1004.4
20260902020004 83 252 0.0 0.0 0.00 0.00 0.00 75 1004.4
20260902015903 83 252 0.0 0.0 0.00 0.00 0.00 75 1004.4
20260902015803 83 252 0.0 0.0 0.00 0.00 0.00 75 1004.4
20260902015704 83 252 0.0 0.0 0.00 0.00 0.00 75 1004.4
20260902015604 83 252 0.0 0.0 0.00 0.00 0.00 75 1004.4
20260902015502 83 252 0.0 0.0 0.00 0.00 0.00 75 1004.3
20260902015403 83 252 0.0 0.0 0.00 0.00 0.00 75 1004.2
20260902015306 83 252 0.0 0.0 0.00 0.00 0.00 75 1004.2
20260902015204 83 252 0.0 0.0 0.00 0.00 0.00 75 1004.2
20260902015102 83 252 0.0 0.0 0.00 0.00 0.00 75 1004.2
20260902015002 83 252 0.0 0.0 0.00 0.00 0.00 75 1004.2
20260902014902 83 252 0.0 0.0 0.00 0.00 0.00 75 1004.2
20260902014805 83 252 0.0 0.0 0.00 0.00 0.00 75 1004.2
20260902014704 83 252 0.0 0.0 0.00 0.00 0.00 75 1004.2
20260902014602 83 252 0.0 0.0 0.00 0.00 0.00 75 1004.2
20260902014503 83 252 0.0 0.0 0.00 0.00 0.00 75 1004.2
20260902014403 83 252 0.0 0.0 0.00 0.00 0.00 75 1004.1
20260902014255 83 252 0.0 0.0 0.00 0.00 0.00 75 1004.2
20260902014156 83 252 0.0 0.0 0.00 0.00 0.00 75 1004.1
20260902014101 83 252 0.0 0.0 0.00 0.00 0.00 75 1004.2
20260902013957 83 252 0.0 0.0 0.00 0.00 0.00 75 1004.1
20260902013846 83 252 0.0 0.0 0.00 0.00 0.00 75 1004.1
20260902013744 83 252 0.0 0.0 0.00 0.00 0.00 75 1004.1
20260902013637 83 252 0.0 0.0 0.00 0.00 0.00 75 1004.1
20260902013538 83 252 0.0 0.0 0.00 0.00 0.00 75 1004.1
20260902013434 83 252 0.0 0.0 0.00 0.00 0.00 75 1004.2
20260902013334 83 252 0.0 0.0 0.00 0.00 0.00 75 1004.1
20260902013232 83 252 0.0 0.0 0.00 0.00 0.00 75 1004.1
20260902013132 83 252 0.0 0.0 0.00 0.00 0.00 75 1004.1
20260902013025 83 252 0.0 0.0 0.00 0.00 0.00 75 1004.1
20260902012926 83 252 0.0 0.0 0.00 0.00 0.00 75 1004.1
20260902012823 83 252 0.0 0.0 0.00 0.00 0.00 75 1004.1
20260902012725 83 252 0.0 1.0 0.00 0.00 0.00 74 1004.1
20260902012616 83 252 0.0 2.0 0.00 0.00 0.00 74 1004.1
20260902012518 83 252 0.0 2.0 0.00 0.00 0.00 74 1004.2
20260902012418 83 252 0.0 2.0 0.00 0.00 0.00 74 1004.2
20260902012316 83 251 0.0 2.0 0.00 0.00 0.00 74 1004.2
20260902012218 83 251 0.0 2.0 0.00 0.00 0.00 74 1004.1
20260902012116 83 251 0.0 2.0 0.00 0.00 0.00 74 1004.1
20260902012015 83 251 0.0 2.0 0.00 0.00 0.00 74 1004.0
20260902011904 83 251 1.0 2.0 0.00 0.00 0.00 74 1004.1
20260902011804 83 251 1.0 2.0 0.00 0.00 0.00 74 1004.1
20260902011705 83 82 0.0 2.0 0.00 0.00 0.00 74 1004.0
20260902011603 83 83 0.0 1.0 0.00 0.00 0.00 74 1004.0
20260902011503 83 82 0.0 1.0 0.00 0.00 0.00 74 1004.1
20260902011403 83 82 0.0 1.0 0.00 0.00 0.00 74 1004.0
20260902011304 83 82 0.0 1.0 0.00 0.00 0.00 74 1004.0
20260902011204 83 82 0.0 1.0 0.00 0.00 0.00 74 1004.0
20260902011103 83 80 0.0 1.0 0.00 0.00 0.00 74 1004.0
20260902011002 83 80 0.0 1.0 0.00 0.00 0.00 74 1004.0
20260902010902 83 100 0.0 1.0 0.00 0.00 0.00 74 1004.0
20260902010756 83 309 0.0 1.0 0.00 0.00 0.00 74 1004.1
20260902010656 83 309 0.0 1.0 0.00 0.00 0.00 74 1004.0
20260902010553 83 309 0.0 1.0 0.00 0.00 0.00 74 1004.1
20260902010441 83 309 0.0 1.0 0.00 0.00 0.00 74 1004.1
20260902010331 83 309 0.0 1.0 0.00 0.00 0.00 75 1004.2
20260902010230 83 309 0.0 1.0 0.00 0.00 0.00 75 1004.1
20260902010126 83 309 0.0 1.0 0.00 0.00 0.00 75 1004.1
20260902010004 83 309 0.0 1.0 0.00 0.00 0.00 75 1004.1
20260902005905 83 306 0.0 1.0 0.00 0.00 0.00 75 1004.1
20260902005803 83 324 0.0 1.0 0.00 0.00 0.00 75 1004.1
20260902005703 83 324 0.0 1.0 0.00 0.00 0.00 75 1004.2
20260902005603 83 324 0.0 1.0 0.00 0.00 0.00 75 1004.2
20260902005502 83 323 0.0 1.0 0.00 0.00 0.00 75 1004.2
20260902005404 83 323 0.0 1.0 0.00 0.00 0.00 75 1004.2
20260902005306 83 323 0.0 1.0 0.00 0.00 0.00 75 1004.2
20260902005203 83 323 0.0 1.0 0.00 0.00 0.00 75 1004.2
20260902005102 83 323 0.0 1.0 0.00 0.00 0.00 75 1004.2
20260902005002 83 323 0.0 1.0 0.00 0.00 0.00 75 1004.3
20260902004903 83 323 0.0 1.0 0.00 0.00 0.00 75 1004.3
20260902004803 83 323 0.0 1.0 0.00 0.00 0.00 75 1004.4
20260902004704 83 317 0.0 0.0 0.00 0.00 0.00 75 1004.4
20260902004604 83 317 0.0 0.0 0.00 0.00 0.00 75 1004.4
20260902004504 83 317 0.0 0.0 0.00 0.00 0.00 75 1004.4
20260902004404 83 317 0.0 0.0 0.00 0.00 0.00 75 1004.4
20260902004303 83 317 0.0 0.0 0.00 0.00 0.00 75 1004.4
20260902004202 83 317 0.0 0.0 0.00 0.00 0.00 75 1004.5
20260902004102 83 317 0.0 0.0 0.00 0.00 0.00 75 1004.4
20260902004003 83 317 0.0 0.0 0.00 0.00 0.00 75 1004.4
20260902003903 83 317 0.0 0.0 0.00 0.00 0.00 75 1004.4
20260902003802 83 317 0.0 1.0 0.00 0.00 0.00 75 1004.4
20260902003702 83 317 0.0 1.0 0.00 0.00 0.00 75 1004.4
20260902003602 83 317 0.0 1.0 0.00 0.00 0.00 75 1004.4
20260902003504 83 317 0.0 1.0 0.00 0.00 0.00 75 1004.4
20260902003402 83 317 0.0 1.0 0.00 0.00 0.00 75 1004.3
20260902003303 83 317 0.0 1.0 0.00 0.00 0.00 75 1004.3
20260902003203 83 317 0.0 1.0 0.00 0.00 0.00 75 1004.3
20260902003104 83 317 0.0 1.0 0.00 0.00 0.00 75 1004.3
20260902003003 83 317 0.0 1.0 0.00 0.00 0.00 74 1004.3
20260902002903 83 317 0.0 1.0 0.00 0.00 0.00 74 1004.3
20260902002802 83 317 0.0 1.0 0.00 0.00 0.00 74 1004.3
20260902002702 83 317 0.0 1.0 0.00 0.00 0.00 74 1004.3
20260902002603 83 317 0.0 2.0 0.00 0.00 0.00 74 1004.3
20260902002503 83 317 0.0 2.0 0.00 0.00 0.00 74 1004.3
20260902002404 83 317 0.0 2.0 0.00 0.00 0.00 74 1004.3
20260902002301 83 317 0.0 2.0 0.00 0.00 0.00 74 1004.3
20260902002202 83 317 0.0 2.0 0.00 0.00 0.00 74 1004.3
20260902002102 83 317 0.0 2.0 0.00 0.00 0.00 74 1004.2
20260902002002 83 317 0.0 2.0 0.00 0.00 0.00 74 1004.2
20260902001901 83 317 0.0 2.0 0.00 0.00 0.00 74 1004.3
20260902001800 83 317 0.0 2.0 0.00 0.00 0.00 74 1004.3
20260902001704 83 317 0.0 2.0 0.00 0.00 0.00 74 1004.3
20260902001603 83 265 0.0 2.0 0.00 0.00 0.00 74 1004.2
20260902001501 83 265 0.0 2.0 0.00 0.00 0.00 74 1004.2
20260902001401 83 265 0.0 2.0 0.00 0.00 0.00 74 1004.2
20260902001300 83 71 0.0 2.0 0.00 0.00 0.00 74 1004.2
20260902001201 84 71 0.0 2.0 0.00 0.00 0.00 74 1004.2
20260902001101 84 71 0.0 2.0 0.00 0.00 0.00 74 1004.2
20260902001000 84 71 0.0 2.0 0.00 0.00 0.00 74 1004.2
20260902000901 84 71 0.0 2.0 0.00 0.00 0.00 74 1004.2
20260902000800 84 71 0.0 2.0 0.00 0.00 0.00 74 1004.2
20260902000700 84 97 0.0 2.0 0.00 0.00 0.00 74 1004.2
20260902000600 84 97 0.0 2.0 0.00 0.00 0.00 73 1004.2
20260902000501 84 99 0.0 2.0 0.00 0.00 0.00 74 1004.2
20260902000402 84 110 0.0 1.0 0.00 0.00 0.00 74 1004.2
20260902000300 84 110 0.0 1.0 0.00 0.00 0.00 73 1004.2
20260902000204 84 110 0.0 0.0 0.00 0.00 0.00 73 1004.2
20260902000000 84 110 0.0 0.0 0.00 0.00 0.00 73 1004.2
20260901235900 84 110 0.0 0.0 0.00 0.00 0.00 73 1004.2
20260901235802 84 110 0.0 0.0 0.00 0.00 0.00 73 1004.2
20260901235701 84 110 0.0 0.0 0.00 0.00 0.00 73 1004.1
20260901235600 84 110 0.0 0.0 0.00 0.00 0.00 73 1004.1
20260901235500 84 110 0.0 1.0 0.00 0.00 0.00 73 1004.2
20260901235401 84 110 0.0 1.0 0.00 0.00 0.00 73 1004.1
20260901235307 84 110 0.0 1.0 0.00 0.00 0.00 73 1004.1
20260901235156 84 110 0.0 1.0 0.00 0.00 0.00 73 1004.1
20260901235055 84 110 0.0 1.0 0.00 0.00 0.00 73 1004.0
20260901234957 84 110 0.0 1.0 0.00 0.00 0.00 73 1004.1
20260901234856 84 110 0.0 1.0 0.00 0.00 0.00 73 1004.2
20260901234754 84 110 0.0 1.0 0.00 0.00 0.00 73 1004.2
20260901234652 84 110 0.0 1.0 0.00 0.00 0.00 73 1004.2
20260901234550 84 110 0.0 1.0 0.00 0.00 0.00 73 1004.2
20260901234449 84 110 0.0 1.0 0.00 0.00 0.00 73 1004.1
20260901234349 84 110 0.0 1.0 0.00 0.00 0.00 73 1004.1
20260901234246 84 110 0.0 2.0 0.00 0.00 0.00 73 1004.2
20260901234144 84 110 0.0 2.0 0.00 0.00 0.00 73 1004.2
20260901234043 84 110 0.0 2.0 0.00 0.00 0.00 73 1004.2
20260901233945 84 110 0.0 2.0 0.00 0.00 0.00 73 1004.2
20260901233844 84 110 0.0 2.0 0.00 0.00 0.00 73 1004.2
20260901233741 84 110 0.0 2.0 0.00 0.00 0.00 72 1004.2
20260901233636 84 110 0.0 5.0 0.00 0.00 0.00 72 1004.2
20260901233537 84 110 0.0 5.0 0.00 0.00 0.00 72 1004.2
20260901233429 84 110 0.0 5.0 0.00 0.00 0.00 72 1004.2
20260901233324 84 110 0.0 5.0 0.00 0.00 0.00 72 1004.2
20260901233226 84 312 0.0 5.0 0.00 0.00 0.00 72 1004.2
20260901233124 84 312 0.0 5.0 0.00 0.00 0.00 72 1004.2
20260901233024 84 312 1.0 5.0 0.00 0.00 0.00 72 1004.3
20260901232917 84 312 1.0 5.0 0.00 0.00 0.00 72 1004.2
20260901232814 84 300 1.0 5.0 0.00 0.00 0.00 72 1004.3
20260901232715 84 233 0.0 4.0 0.00 0.00 0.00 72 1004.3
20260901232607 84 233 0.0 4.0 0.00 0.00 0.00 72 1004.2
20260901232505 84 233 0.0 4.0 0.00 0.00 0.00 72 1004.3
20260901232402 84 233 0.0 4.0 0.00 0.00 0.00 72 1004.2
20260901232302 84 233 0.0 4.0 0.00 0.00 0.00 72 1004.2
20260901232202 84 233 0.0 4.0 0.00 0.00 0.00 72 1004.2
20260901232102 84 233 0.0 4.0 0.00 0.00 0.00 72 1004.2
20260901232003 84 233 0.0 4.0 0.00 0.00 0.00 72 1004.3
20260901231903 84 233 1.0 4.0 0.00 0.00 0.00 72 1004.3
20260901231803 84 316 1.0 4.0 0.00 0.00 0.00 72 1004.2
20260901231702 84 355 1.0 3.0 0.00 0.00 0.00 72 1004.3
20260901231603 84 82 0.0 2.0 0.00 0.00 0.00 72 1004.3
20260901231503 84 82 0.0 2.0 0.00 0.00 0.00 72 1004.3
20260901231403 84 0 0.0 2.0 0.00 0.00 0.00 72 1004.3
20260901231304 84 0 0.0 3.0 0.00 0.00 0.00 71 1004.3
20260901231202 85 0 0.0 3.0 0.00 0.00 0.00 71 1004.4
20260901231102 85 0 0.0 3.0 0.00 0.00 0.00 71 1004.4
20260901231004 85 0 0.0 3.0 0.00 0.00 0.00 71 1004.4
20260901230902 85 0 0.0 3.0 0.00 0.00 0.00 71 1004.4
20260901230802 85 0 0.0 3.0 0.00 0.00 0.00 71 1004.4
20260901230702 85 0 0.0 3.0 0.00 0.00 0.00 71 1004.4
20260901230604 85 0 0.0 3.0 0.00 0.00 0.00 70 1004.5
20260901230503 85 276 0.0 3.0 0.00 0.00 0.00 70 1004.4
20260901230404 85 276 1.0 3.0 0.00 0.00 0.00 70 1004.4
20260901230302 85 120 1.0 3.0 0.00 0.00 0.00 70 1004.4
20260901230201 85 114 1.0 3.0 0.00 0.00 0.00 70 1004.4
20260901230002 85 127 0.0 2.0 0.00 0.00 0.00 70 1004.4
20260901225902 85 130 0.0 5.0 0.00 0.00 0.00 70 1004.5
20260901225802 85 128 1.0 5.0 0.00 0.00 0.00 70 1004.5
20260901225703 85 128 1.0 5.0 0.00 0.00 0.00 70 1004.4
20260901225602 85 128 1.0 5.0 0.00 0.00 0.00 70 1004.4
20260901225504 85 133 1.0 5.0 0.00 0.00 0.00 69 1004.4
20260901225403 85 135 0.0 5.0 0.00 0.00 0.00 69 1004.5
20260901225306 86 118 0.0 5.0 0.00 0.00 0.00 68 1004.4
20260901225202 86 127 0.0 5.0 0.00 0.00 0.00 68 1004.4
20260901225102 86 80 1.0 5.0 0.00 0.00 0.00 68 1004.5
20260901225001 86 48 2.0 5.0 0.00 0.00 0.00 68 1004.6
20260901224900 87 336 2.0 4.0 0.00 0.00 0.00 68 1004.6
20260901224759 87 21 2.0 4.0 0.00 0.00 0.00 68 1004.6
20260901224659 87 338 2.0 4.0 0.00 0.00 0.00 68 1004.5
20260901224559 87 66 1.0 5.0 0.00 0.00 0.00 68 1004.5
20260901224459 87 8 1.0 5.0 0.00 0.00 0.00 68 1004.5
20260901224400 87 45 1.0 5.0 0.00 0.00 0.00 68 1004.5
20260901224259 87 233 0.0 5.0 0.00 0.00 0.00 67 1004.6
20260901224158 87 121 1.0 5.0 0.00 0.00 0.00 67 1004.5
20260901224100 88 121 2.0 5.0 0.00 0.00 0.00 67 1004.6
20260901224000 88 285 1.0 5.0 0.00 0.00 0.00 67 1004.6
20260901223859 88 75 1.0 5.0 0.00 0.00 0.00 67 1004.7
20260901223758 88 0 1.0 5.0 0.00 0.00 0.00 68 1004.6
20260901223700 88 121 1.0 5.0 0.00 0.00 0.00 67 1004.7
20260901223600 88 0 0.0 4.0 0.00 0.00 0.00 67 1004.7
20260901223500 89 0 0.0 4.0 0.00 0.00 0.00 67 1004.7
20260901223358 89 0 0.0 4.0 0.00 0.00 0.00 66 1004.7
20260901223300 89 0 1.0 4.0 0.00 0.00 0.00 65 1004.7
20260901223200 89 13 1.0 5.0 0.00 0.00 0.00 65 1004.7
20260901223059 89 16 1.0 5.0 0.00 0.00 0.00 65 1004.8
20260901223000 90 92 1.0 5.0 0.00 0.00 0.00 64 1004.8
20260901222859 90 92 1.0 5.0 0.00 0.00 0.00 63 1004.8
20260901222758 90 93 1.0 5.0 0.00 0.00 0.00 63 1004.8
20260901222659 91 334 1.0 5.0 0.00 0.00 0.00 62 1004.8
20260901222600 91 7 1.0 5.0 0.00 0.00 0.00 62 1004.9
20260901222500 92 63 2.0 5.0 0.00 0.00 0.00 61 1004.8
20260901222359 92 79 2.0 5.0 0.00 0.00 0.00 61 1004.8
20260901222258 92 41 2.0 5.0 0.00 0.00 0.00 61 1004.8
20260901222200 92 99 1.0 4.0 0.00 0.00 0.00 61 1004.6
20260901222100 92 137 0.0 2.0 0.00 0.00 0.00 61 1004.6
20260901221958 92 137 0.0 2.0 0.00 0.00 0.00 61 1004.6
20260901221900 93 298 0.0 2.0 0.00 0.00 0.00 61 1004.5
20260901221759 93 173 0.0 2.0 0.00 0.00 0.00 61 1004.5
20260901221700 93 200 0.0 2.0 0.00 0.00 0.00 61 1004.5
20260901221558 93 202 0.0 2.0 0.00 0.00 0.00 60 1004.5
20260901221458 93 202 1.0 2.0 0.00 0.00 0.00 61 1004.4
20260901221358 93 161 0.0 2.0 0.00 0.00 0.00 60 1004.5
20260901221258 93 59 0.0 1.0 0.00 0.00 0.00 60 1004.4
20260901221200 93 59 0.0 1.0 0.00 0.00 0.00 60 1004.4
20260901221058 93 59 0.0 1.0 0.00 0.00 0.00 59 1004.4
20260901220959 93 59 0.0 1.0 0.00 0.00 0.00 60 1004.4
20260901220859 93 59 0.0 1.0 0.00 0.00 0.00 60 1004.3
20260901220758 93 59 0.0 1.0 0.00 0.00 0.00 60 1004.4
20260901220659 93 59 0.0 1.0 0.00 0.00 0.00 60 1004.3
20260901220558 93 59 0.0 1.0 0.00 0.00 0.00 60 1004.3
20260901220458 93 58 0.0 1.0 0.00 0.00 0.00 61 1004.3
20260901220400 93 58 0.0 1.0 0.00 0.00 0.00 60 1004.3
20260901220257 93 58 0.0 3.0 0.00 0.00 0.00 61 1004.3
20260901220158 92 58 0.0 3.0 0.00 0.00 0.00 60 1004.3
20260901220058 92 58 0.0 3.0 0.00 0.00 0.00 60 1004.3
20260901215958 92 58 0.0 3.0 0.00 0.00 0.00 60 1004.3
20260901215858 93 56 0.0 3.0 0.00 0.00 0.00 59 1004.3
20260901215759 93 56 1.0 3.0 0.00 0.00 0.00 58 1004.3
20260901215657 93 56 0.0 3.0 0.00 0.00 0.00 58 1004.4
20260901215557 93 56 0.0 3.0 0.00 0.00 0.00 58 1004.4
20260901215459 93 58 0.0 3.0 0.00 0.00 0.00 58 1004.3
20260901215358 93 58 1.0 3.0 0.00 0.00 0.00 58 1004.4
20260901215257 93 104 0.0 1.0 0.00 0.00 0.00 58 1004.3
20260901215157 93 104 0.0 1.0 0.00 0.00 0.00 57 1004.4
20260901215057 93 104 0.0 1.0 0.00 0.00 0.00 57 1004.4
20260901214959 93 104 0.0 1.0 0.00 0.00 0.00 59 1004.4
20260901214858 93 104 0.0 1.0 0.00 0.00 0.00 59 1004.4
20260901214757 93 104 0.0 1.0 0.00 0.00 0.00 59 1004.3
20260901214659 93 104 0.0 1.0 0.00 0.00 0.00 59 1004.4
20260901214557 93 350 0.0 1.0 0.00 0.00 0.00 59 1004.4
20260901214457 93 350 0.0 1.0 0.00 0.00 0.00 60 1004.4
20260901214359 93 350 0.0 1.0 0.00 0.00 0.00 60 1004.5
20260901214257 93 350 0.0 1.0 0.00 0.00 0.00 60 1004.4
20260901214159 93 3 0.0 1.0 0.00 0.00 0.00 60 1004.4
20260901214058 93 3 0.0 1.0 0.00 0.00 0.00 59 1004.3
20260901213957 93 3 0.0 2.0 0.00 0.00 0.00 59 1004.3
20260901213857 93 3 0.0 2.0 0.00 0.00 0.00 59 1004.4
20260901213757 93 1 0.0 2.0 0.00 0.00 0.00 60 1004.3
20260901213657 93 1 0.0 2.0 0.00 0.00 0.00 59 1004.4
20260901213559 93 1 0.0 2.0 0.00 0.00 0.00 59 1004.4
20260901213459 93 0 1.0 2.0 0.00 0.00 0.00 59 1004.3
20260901213358 93 0 1.0 2.0 0.00 0.00 0.00 59 1004.4
20260901213257 93 1 1.0 2.0 0.00 0.00 0.00 59 1004.4
20260901213157 93 8 1.0 2.0 0.00 0.00 0.00 58 1004.4
20260901213057 93 8 1.0 3.0 0.00 0.00 0.00 58 1004.4
20260901212957 93 79 0.0 3.0 0.00 0.00 0.00 58 1004.4
20260901212900 93 65 0.0 3.0 0.00 0.00 0.00 58 1004.4
20260901212753 93 71 1.0 3.0 0.00 0.00 0.00 58 1004.4
20260901212652 94 274 0.0 3.0 0.00 0.00 0.00 58 1004.3
20260901212550 94 272 1.0 3.0 0.00 0.00 0.00 58 1004.3
20260901212445 94 274 1.0 3.0 0.00 0.00 0.00 58 1004.3
20260901212348 94 276 1.0 3.0 0.00 0.00 0.00 58 1004.4
20260901212243 94 276 1.0 3.0 0.00 0.00 0.00 58 1004.3
20260901212142 94 3 1.0 3.0 0.00 0.00 0.00 58 1004.4
20260901212044 94 3 1.0 3.0 0.00 0.00 0.00 59 1004.4
20260901211938 94 0 2.0 6.0 0.00 0.00 0.00 59 1004.4
20260901211832 94 125 1.0 6.0 0.00 0.00 0.00 60 1004.4
20260901211731 94 125 0.0 6.0 0.00 0.00 0.00 60 1004.4
20260901211632 94 125 1.0 6.0 0.00 0.00 0.00 60 1004.3
20260901211531 94 127 1.0 6.0 0.00 0.00 0.00 60 1004.3
20260901211431 94 85 0.0 6.0 0.00 0.00 0.00 60 1004.3
20260901211331 94 83 0.0 6.0 0.00 0.00 0.00 60 1004.3
20260901211232 94 86 1.0 6.0 0.00 0.00 0.00 60 1004.4
20260901211133 94 45 2.0 6.0 0.00 0.00 0.00 59 1004.4
20260901211032 94 65 2.0 6.0 0.00 0.00 0.00 59 1004.4
20260901210930 94 61 2.0 3.0 0.00 0.00 0.00 59 1004.5
20260901210832 94 93 1.0 3.0 0.00 0.00 0.00 58 1004.5
20260901210731 94 271 1.0 3.0 0.00 0.00 0.00 59 1004.5
20260901210627 94 300 2.0 3.0 0.00 0.00 0.00 59 1004.5
20260901210524 95 223 2.0 3.0 0.00 0.00 0.00 59 1004.5
20260901210423 95 14 1.0 3.0 0.00 0.00 0.00 59 1004.5
20260901210314 94 30 2.0 6.0 0.00 0.00 0.00 59 1004.5
20260901210204 94 32 1.0 6.0 0.00 0.00 0.00 60 1004.5
20260901210104 94 347 0.0 6.0 0.00 0.00 0.00 58 1004.5
20260901210005 94 347 0.0 6.0 0.00 0.00 0.00 58 1004.5
20260901205901 95 345 1.0 6.0 0.00 0.00 0.00 58 1004.4
20260901205803 95 357 1.0 6.0 0.00 0.00 0.00 58 1004.4
20260901205702 95 282 1.0 6.0 0.00 0.00 0.00 58 1004.5
20260901205603 95 189 2.0 6.0 0.00 0.00 0.00 58 1004.5
20260901205505 95 337 2.0 6.0 0.00 0.00 0.00 59 1004.5
20260901205405 95 169 1.0 3.0 0.00 0.00 0.00 59 1004.6
20260901205306 95 55 1.0 4.0 0.00 0.00 0.00 59 1004.5
20260901205203 94 55 2.0 4.0 0.00 0.00 0.00 59 1004.5